Wetterdaten: aktuell Samstag, 24.10.2020 16:52
Datum Zeit Temp. Aussen Temp. o. S. Temp +5cm Feuchte Auss Luftdruck Regen Sonnenschein Regendauer Solar Windben Empfang
24.10.2020 16:52 15,7 C 15,0 C 13,9 C 85 % 1011,2 hPa 0,0 l/m 0 min 0 min 69 W/m 12,9 km/h (3 Bft) 95,83 %
24.10.2020 16:50 15,7 C 15,0 C 13,9 C 84 % 1011,2 hPa 0,0 l/m 0 min 0 min 69 W/m 0,0 km/h (0 Bft) 100,00 %
24.10.2020 16:48 15,7 C 15,0 C 13,9 C 84 % 1011,2 hPa 0,0 l/m 0 min 0 min 64 W/m 16,1 km/h (3 Bft) 97,87 %
24.10.2020 16:46 15,7 C 15,0 C 13,9 C 84 % 1011,3 hPa 0,0 l/m 0 min 0 min 57 W/m 25,7 km/h (4 Bft) 100,00 %
24.10.2020 16:44 15,7 C 15,0 C 13,9 C 84 % 1011,3 hPa 0,0 l/m 0 min 0 min 57 W/m 19,3 km/h (3 Bft) 100,00 %
24.10.2020 16:42 15,7 C 15,0 C 13,9 C 84 % 1011,4 hPa 0,0 l/m 0 min 0 min 49 W/m 6,4 km/h (2 Bft) 100,00 %
24.10.2020 16:40 15,7 C 15,0 C 13,9 C 84 % 1011,3 hPa 0,0 l/m 0 min 0 min 48 W/m 12,9 km/h (3 Bft) 100,00 %
24.10.2020 16:38 15,7 C 15,0 C 13,9 C 84 % 1011,4 hPa 0,0 l/m 0 min 0 min 48 W/m 25,7 km/h (4 Bft) 100,00 %
24.10.2020 16:36 15,7 C 15,0 C 13,9 C 84 % 1011,5 hPa 0,0 l/m 0 min 0 min 43 W/m 22,5 km/h (4 Bft) 97,87 %
24.10.2020 16:34 15,7 C 15,0 C 13,9 C 84 % 1011,4 hPa 0,0 l/m 0 min 0 min 45 W/m 16,1 km/h (3 Bft) 100,00 %
24.10.2020 16:32 15,7 C 15,0 C 13,9 C 84 % 1011,4 hPa 0,0 l/m 0 min 0 min 48 W/m 16,1 km/h (3 Bft) 100,00 %
24.10.2020 16:30 15,7 C 15,0 C 13,9 C 84 % 1011,5 hPa 0,0 l/m 0 min 0 min 48 W/m 25,7 km/h (4 Bft) 100,00 %
24.10.2020 16:28 15,7 C 15,0 C 13,9 C 84 % 1011,4 hPa 0,0 l/m 0 min 0 min 52 W/m 3,2 km/h (1 Bft) 100,00 %
24.10.2020 16:26 15,7 C 15,0 C 13,9 C 84 % 1011,4 hPa 0,0 l/m 0 min 0 min 57 W/m 3,2 km/h (1 Bft) 100,00 %
24.10.2020 16:24 15,7 C 15,0 C 13,9 C 84 % 1011,4 hPa 0,0 l/m 0 min 0 min 56 W/m 25,7 km/h (4 Bft) 100,00 %
24.10.2020 16:22 15,7 C 15,0 C 13,9 C 84 % 1011,5 hPa 0,0 l/m 0 min 0 min 47 W/m 41,8 km/h (6 Bft) 100,00 %
24.10.2020 16:20 15,8 C 15,0 C 13,9 C 83 % 1011,5 hPa 0,0 l/m 0 min 0 min 49 W/m 25,7 km/h (4 Bft) 100,00 %
24.10.2020 16:18 15,8 C 15,0 C 13,9 C 84 % 1011,4 hPa 0,0 l/m 0 min 0 min 56 W/m 22,5 km/h (4 Bft) 100,00 %
24.10.2020 16:16 15,8 C 15,0 C 13,9 C 83 % 1011,5 hPa 0,0 l/m 0 min 0 min 55 W/m 22,5 km/h (4 Bft) 100,00 %
24.10.2020 16:14 15,8 C 15,0 C 13,9 C 83 % 1011,5 hPa 0,0 l/m 0 min 0 min 50 W/m 16,1 km/h (3 Bft) 100,00 %
24.10.2020 16:12 15,8 C 15,0 C 13,9 C 83 % 1011,5 hPa 0,0 l/m 0 min 0 min 51 W/m 6,4 km/h (2 Bft) 100,00 %
24.10.2020 16:10 15,8 C 15,0 C 13,9 C 83 % 1011,5 hPa 0,0 l/m 0 min 0 min 45 W/m 12,9 km/h (3 Bft) 100,00 %
24.10.2020 16:08 15,8 C 15,0 C 13,9 C 83 % 1011,6 hPa 0,0 l/m 0 min 0 min 45 W/m 19,3 km/h (3 Bft) 100,00 %
24.10.2020 16:06 15,8 C 15,0 C 13,9 C 83 % 1011,5 hPa 0,0 l/m 0 min 0 min 59 W/m 16,1 km/h (3 Bft) 100,00 %
24.10.2020 16:04 15,8 C 15,0 C 13,9 C 83 % 1011,6 hPa 0,0 l/m 0 min 0 min 58 W/m 22,5 km/h (4 Bft) 100,00 %
24.10.2020 16:02 15,9 C 15,0 C 13,9 C 83 % 1011,6 hPa 0,0 l/m 0 min 0 min 61 W/m 19,3 km/h (3 Bft) 97,96 %
24.10.2020 16:00 15,9 C 15,0 C 13,9 C 83 % 1011,6 hPa 0,0 l/m 0 min 0 min 56 W/m 3,2 km/h (1 Bft) 100,00 %
24.10.2020 15:58 15,9 C 15,0 C 13,9 C 83 % 1011,6 hPa 0,0 l/m 0 min 0 min 48 W/m 19,3 km/h (3 Bft) 100,00 %
24.10.2020 15:56 15,9 C 15,0 C 13,9 C 83 % 1011,6 hPa 0,0 l/m 0 min 0 min 56 W/m 0,0 km/h (0 Bft) 100,00 %
24.10.2020 15:54 15,9 C 15,0 C 13,9 C 83 % 1011,6 hPa 0,0 l/m 0 min 0 min 54 W/m 12,9 km/h (3 Bft) 100,00 %
24.10.2020 15:52 15,9 C 15,6 C 13,9 C 83 % 1011,5 hPa 0,0 l/m 0 min 0 min 53 W/m 6,4 km/h (2 Bft) 100,00 %
24.10.2020 15:50 15,9 C 15,6 C 14,5 C 82 % 1011,6 hPa 0,0 l/m 0 min 0 min 66 W/m 6,4 km/h (2 Bft) 100,00 %
24.10.2020 15:48 15,9 C 15,6 C 14,5 C 82 % 1011,6 hPa 0,0 l/m 0 min 0 min 80 W/m 35,4 km/h (5 Bft) 97,87 %
24.10.2020 15:46 16,0 C 15,6 C 14,5 C 82 % 1011,6 hPa 0,0 l/m 0 min 0 min 89 W/m 16,1 km/h (3 Bft) 100,00 %
24.10.2020 15:44 16,0 C 15,6 C 14,5 C 82 % 1011,6 hPa 0,0 l/m 0 min 0 min 97 W/m 16,1 km/h (3 Bft) 100,00 %
24.10.2020 15:42 16,0 C 15,6 C 14,5 C 82 % 1011,6 hPa 0,0 l/m 0 min 0 min 123 W/m 22,5 km/h (4 Bft) 100,00 %
24.10.2020 15:40 16,0 C 16,1 C 14,5 C 82 % 1011,7 hPa 0,0 l/m 0 min 0 min 144 W/m 29,0 km/h (5 Bft) 97,87 %
24.10.2020 15:38 16,0 C 16,1 C 14,5 C 82 % 1011,8 hPa 0,0 l/m 0 min 0 min 160 W/m 32,2 km/h (5 Bft) 97,87 %
24.10.2020 15:36 16,0 C 16,1 C 14,5 C 82 % 1011,8 hPa 0,0 l/m 0 min 0 min 155 W/m 12,9 km/h (3 Bft) 100,00 %
24.10.2020 15:34 16,0 C 16,1 C 14,5 C 82 % 1011,7 hPa 0,0 l/m 2 min 0 min 189 W/m 32,2 km/h (5 Bft) 100,00 %
24.10.2020 15:32 16,0 C 16,1 C 14,5 C 82 % 1011,8 hPa 0,0 l/m 2 min 0 min 192 W/m 22,5 km/h (4 Bft) 100,00 %
24.10.2020 15:30 16,0 C 16,1 C 14,5 C 82 % 1011,8 hPa 0,0 l/m 2 min 0 min 176 W/m 12,9 km/h (3 Bft) 97,87 %
24.10.2020 15:28 15,9 C 16,1 C 14,5 C 82 % 1011,9 hPa 0,0 l/m 0 min 0 min 171 W/m 25,7 km/h (4 Bft) 97,87 %
24.10.2020 15:26 16,0 C 16,1 C 14,5 C 82 % 1011,9 hPa 0,0 l/m 0 min 0 min 160 W/m 32,2 km/h (5 Bft) 97,87 %
24.10.2020 15:24 15,9 C 16,1 C 14,5 C 82 % 1011,9 hPa 0,0 l/m 2 min 0 min 183 W/m 19,3 km/h (3 Bft) 97,83 %
24.10.2020 15:22 15,9 C 16,1 C 14,5 C 82 % 1011,9 hPa 0,0 l/m 2 min 0 min 207 W/m 22,5 km/h (4 Bft) 97,87 %
24.10.2020 15:20 15,9 C 16,1 C 14,5 C 82 % 1011,9 hPa 0,0 l/m 0 min 0 min 150 W/m 19,3 km/h (3 Bft) 97,87 %
24.10.2020 15:18 15,9 C 16,1 C 14,5 C 82 % 1011,9 hPa 0,0 l/m 0 min 0 min 171 W/m 0,0 km/h (0 Bft) 97,87 %
24.10.2020 15:16 15,9 C 16,1 C 14,5 C 82 % 1011,9 hPa 0,0 l/m 2 min 0 min 189 W/m 12,9 km/h (3 Bft) 97,87 %
24.10.2020 15:14 15,9 C 16,1 C 14,5 C 82 % 1012,0 hPa 0,0 l/m 0 min 0 min 171 W/m 19,3 km/h (3 Bft) 95,74 %
24.10.2020 15:12 15,9 C 15,6 C 14,5 C 82 % 1012,0 hPa 0,0 l/m 0 min 0 min 166 W/m 29,0 km/h (5 Bft) 97,83 %
24.10.2020 15:10 15,9 C 15,6 C 14,5 C 82 % 1012,1 hPa 0,0 l/m 0 min 0 min 143 W/m 32,2 km/h (5 Bft) 97,87 %
24.10.2020 15:08 15,9 C 15,6 C 14,5 C 82 % 1012,1 hPa 0,0 l/m 0 min 0 min 132 W/m 19,3 km/h (3 Bft) 95,74 %
24.10.2020 15:06 15,9 C 16,1 C 14,5 C 82 % 1012,1 hPa 0,0 l/m 0 min 0 min 149 W/m 29,0 km/h (5 Bft) 95,74 %
24.10.2020 15:04 15,9 C 16,1 C 14,5 C 82 % 1012,1 hPa 0,0 l/m 2 min 0 min 202 W/m 41,8 km/h (6 Bft) 93,62 %
24.10.2020 15:02 15,8 C 16,7 C 14,5 C 82 % 1012,1 hPa 0,0 l/m 2 min 0 min 213 W/m 35,4 km/h (5 Bft) 93,48 %
24.10.2020 15:00 15,8 C 16,7 C 14,5 C 82 % 1012,1 hPa 0,0 l/m 2 min 0 min 200 W/m 25,7 km/h (4 Bft) 93,62 %
24.10.2020 14:58 15,8 C 16,7 C 14,5 C 82 % 1012,2 hPa 0,0 l/m 2 min 0 min 196 W/m 29,0 km/h (5 Bft) 93,62 %
24.10.2020 14:56 15,8 C 16,7 C 14,5 C 82 % 1012,1 hPa 0,0 l/m 0 min 0 min 183 W/m 16,1 km/h (3 Bft) 93,62 %
24.10.2020 14:54 15,7 C 16,7 C 15,0 C 82 % 1012,1 hPa 0,0 l/m 2 min 0 min 202 W/m 25,7 km/h (4 Bft) 92,31 %
24.10.2020 14:52 15,6 C 16,1 C 14,5 C 82 % 1012,2 hPa 0,0 l/m 2 min 0 min 231 W/m 29,0 km/h (5 Bft) 91,49 %
24.10.2020 14:50 15,6 C 16,7 C 15,0 C 83 % 1012,4 hPa 0,0 l/m 2 min 0 min 280 W/m 45,1 km/h (6 Bft) 91,49 %
24.10.2020 14:48 15,5 C 16,7 C 14,5 C 83 % 1012,2 hPa 0,0 l/m 2 min 0 min 246 W/m 29,0 km/h (5 Bft) 94,44 %
24.10.2020 14:46 15,5 C 16,7 C 14,5 C 83 % 1012,2 hPa 0,0 l/m 2 min 0 min 251 W/m 35,4 km/h (5 Bft) 91,49 %
24.10.2020 14:44 15,5 C 16,1 C 14,5 C 83 % 1012,2 hPa 0,0 l/m 2 min 0 min 246 W/m 29,0 km/h (5 Bft) 93,62 %
24.10.2020 14:42 15,4 C 16,1 C 14,5 C 83 % 1012,3 hPa 0,0 l/m 2 min 0 min 222 W/m 16,1 km/h (3 Bft) 93,62 %
24.10.2020 14:40 15,4 C 16,1 C 14,5 C 82 % 1012,3 hPa 0,0 l/m 0 min 0 min 192 W/m 29,0 km/h (5 Bft) 93,62 %
24.10.2020 14:38 15,4 C 16,1 C 14,5 C 83 % 1012,3 hPa 0,0 l/m 2 min 0 min 212 W/m 29,0 km/h (5 Bft) 91,30 %
24.10.2020 14:36 15,3 C 16,7 C 14,5 C 83 % 1012,3 hPa 0,0 l/m 2 min 0 min 267 W/m 41,8 km/h (6 Bft) 91,49 %
24.10.2020 14:34 15,3 C 16,7 C 14,5 C 83 % 1012,5 hPa 0,0 l/m 2 min 0 min 292 W/m 35,4 km/h (5 Bft) 95,74 %
24.10.2020 14:32 15,2 C 16,1 C 14,5 C 83 % 1012,4 hPa 0,0 l/m 2 min 0 min 216 W/m 35,4 km/h (5 Bft) 95,74 %
24.10.2020 14:30 15,1 C 16,1 C 14,5 C 83 % 1012,5 hPa 0,0 l/m 2 min 0 min 234 W/m 25,7 km/h (4 Bft) 95,74 %
24.10.2020 14:28 15,1 C 15,6 C 14,5 C 83 % 1012,5 hPa 0,0 l/m 2 min 0 min 249 W/m 32,2 km/h (5 Bft) 95,74 %
24.10.2020 14:26 15,1 C 15,6 C 13,9 C 83 % 1012,4 hPa 0,0 l/m 0 min 0 min 196 W/m 25,7 km/h (4 Bft) 95,65 %
24.10.2020 14:24 15,1 C 15,0 C 13,9 C 83 % 1012,5 hPa 0,0 l/m 0 min 0 min 117 W/m 29,0 km/h (5 Bft) 95,74 %
24.10.2020 14:22 15,1 C 15,0 C 13,9 C 83 % 1012,5 hPa 0,0 l/m 0 min 0 min 102 W/m 35,4 km/h (5 Bft) 93,62 %
24.10.2020 14:20 15,1 C 15,0 C 13,9 C 83 % 1012,6 hPa 0,0 l/m 0 min 0 min 108 W/m 29,0 km/h (5 Bft) 95,74 %
24.10.2020 14:18 15,1 C 15,0 C 13,9 C 83 % 1012,5 hPa 0,0 l/m 0 min 0 min 116 W/m 16,1 km/h (3 Bft) 97,87 %
24.10.2020 14:16 15,0 C 15,0 C 14,5 C 84 % 1012,5 hPa 0,0 l/m 0 min 0 min 124 W/m 22,5 km/h (4 Bft) 95,74 %
24.10.2020 14:14 15,0 C 15,0 C 14,5 C 83 % 1012,6 hPa 0,0 l/m 0 min 0 min 143 W/m 16,1 km/h (3 Bft) 97,83 %
24.10.2020 14:12 15,0 C 15,0 C 14,5 C 84 % 1012,5 hPa 0,0 l/m 0 min 0 min 144 W/m 22,5 km/h (4 Bft) 97,87 %
24.10.2020 14:10 15,0 C 15,0 C 14,5 C 83 % 1012,5 hPa 0,0 l/m 0 min 0 min 142 W/m 16,1 km/h (3 Bft) 97,87 %
24.10.2020 14:08 15,0 C 15,0 C 14,5 C 84 % 1012,5 hPa 0,0 l/m 0 min 0 min 144 W/m 32,2 km/h (5 Bft) 97,87 %
24.10.2020 14:06 14,9 C 15,0 C 14,5 C 84 % 1012,5 hPa 0,0 l/m 0 min 0 min 165 W/m 35,4 km/h (5 Bft) 98,00 %
24.10.2020 14:04 14,9 C 15,6 C 14,5 C 84 % 1012,6 hPa 0,0 l/m 0 min 0 min 189 W/m 51,5 km/h (7 Bft) 100,00 %
24.10.2020 14:02 14,9 C 15,6 C 14,5 C 84 % 1012,6 hPa 0,0 l/m 0 min 0 min 195 W/m 29,0 km/h (5 Bft) 98,18 %
24.10.2020 14:00 14,8 C 15,0 C 14,5 C 84 % 1012,6 hPa 0,0 l/m 0 min 0 min 173 W/m 22,5 km/h (4 Bft) 95,74 %
24.10.2020 13:58 14,8 C 15,0 C 14,5 C 84 % 1012,6 hPa 0,0 l/m 0 min 0 min 168 W/m 38,6 km/h (5 Bft) 100,00 %
24.10.2020 13:56 14,8 C 15,0 C 14,5 C 85 % 1012,6 hPa 0,0 l/m 0 min 0 min 158 W/m 22,5 km/h (4 Bft) 100,00 %
24.10.2020 13:54 14,8 C 15,0 C 14,5 C 85 % 1012,6 hPa 0,0 l/m 0 min 0 min 128 W/m 25,7 km/h (4 Bft) 97,87 %
24.10.2020 13:52 14,7 C 15,0 C 14,5 C 85 % 1012,6 hPa 0,0 l/m 0 min 0 min 138 W/m 35,4 km/h (5 Bft) 97,37 %
24.10.2020 13:50 14,6 C 15,6 C 14,5 C 86 % 1012,6 hPa 0,0 l/m 0 min 0 min 214 W/m 29,0 km/h (5 Bft) 97,87 %
24.10.2020 13:48 14,6 C 15,6 C 14,5 C 86 % 1012,6 hPa 0,0 l/m 2 min 0 min 236 W/m 16,1 km/h (3 Bft) 97,87 %
24.10.2020 13:46 14,6 C 15,6 C 14,5 C 87 % 1012,6 hPa 0,0 l/m 0 min 0 min 207 W/m 12,9 km/h (3 Bft) 100,00 %
24.10.2020 13:44 14,5 C 15,0 C 14,5 C 87 % 1012,7 hPa 0,0 l/m 0 min 0 min 191 W/m 29,0 km/h (5 Bft) 97,87 %
24.10.2020 13:42 14,5 C 15,6 C 14,5 C 87 % 1012,7 hPa 0,0 l/m 0 min 0 min 195 W/m 32,2 km/h (5 Bft) 100,00 %
24.10.2020 13:40 14,4 C 15,6 C 14,5 C 88 % 1012,7 hPa 0,0 l/m 0 min 0 min 205 W/m 29,0 km/h (5 Bft) 97,87 %
24.10.2020 13:38 14,3 C 15,6 C 14,5 C 89 % 1012,7 hPa 0,0 l/m 0 min 0 min 194 W/m 16,1 km/h (3 Bft) 97,87 %
24.10.2020 13:36 14,2 C 16,1 C 15,0 C 89 % 1012,7 hPa 0,0 l/m 0 min 0 min 206 W/m 25,7 km/h (4 Bft) 100,00 %
24.10.2020 13:34 14,2 C 17,8 C 15,6 C 89 % 1012,7 hPa 0,0 l/m 2 min 0 min 585 W/m 12,9 km/h (3 Bft) 100,00 %
24.10.2020 13:32 14,1 C 17,8 C 15,6 C 89 % 1012,7 hPa 0,0 l/m 2 min 0 min 343 W/m 19,3 km/h (3 Bft) 100,00 %
24.10.2020 13:30 14,0 C 15,6 C 14,5 C 89 % 1012,8 hPa 0,0 l/m 2 min 0 min 267 W/m 29,0 km/h (5 Bft) 100,00 %
24.10.2020 13:28 14,0 C 15,6 C 13,9 C 90 % 1012,7 hPa 0,0 l/m 2 min 0 min 258 W/m 38,6 km/h (5 Bft) 100,00 %
24.10.2020 13:26 13,9 C 15,0 C 13,9 C 90 % 1012,8 hPa 0,0 l/m 2 min 0 min 242 W/m 22,5 km/h (4 Bft) 100,00 %
24.10.2020 13:24 13,9 C 14,4 C 13,9 C 90 % 1012,8 hPa 0,0 l/m 2 min 0 min 235 W/m 32,2 km/h (5 Bft) 97,87 %
24.10.2020 13:22 13,8 C 15,0 C 13,9 C 90 % 1012,8 hPa 0,0 l/m 2 min 0 min 229 W/m 29,0 km/h (5 Bft) 100,00 %
24.10.2020 13:20 13,8 C 14,4 C 13,4 C 90 % 1012,8 hPa 0,0 l/m 0 min 0 min 218 W/m 32,2 km/h (5 Bft) 100,00 %
24.10.2020 13:18 13,8 C 14,4 C 13,4 C 91 % 1012,9 hPa 0,0 l/m 2 min 0 min 257 W/m 22,5 km/h (4 Bft) 100,00 %
24.10.2020 13:16 13,8 C 13,9 C 12,8 C 90 % 1012,9 hPa 0,0 l/m 0 min 0 min 177 W/m 29,0 km/h (5 Bft) 72,34 %
24.10.2020 13:14 13,8 C 13,3 C 12,8 C 90 % 1013,0 hPa 0,0 l/m 0 min 0 min 141 W/m 32,2 km/h (5 Bft) 85,11 %
24.10.2020 13:12 13,8 C 12,8 C 12,8 C 90 % 1013,0 hPa 0,0 l/m 0 min 2 min 169 W/m 38,6 km/h (5 Bft) 98,15 %
24.10.2020 13:10 13,8 C 12,8 C 12,8 C 90 % 1013,0 hPa 0,0 l/m 0 min 0 min 179 W/m 19,3 km/h (3 Bft) 97,87 %
24.10.2020 13:08 13,8 C 12,8 C 12,2 C 90 % 1013,0 hPa 0,0 l/m 0 min 2 min 172 W/m 19,3 km/h (3 Bft) 100,00 %
24.10.2020 13:06 13,8 C 12,2 C 12,8 C 90 % 1013,0 hPa 0,0 l/m 0 min 2 min 109 W/m 32,2 km/h (5 Bft) 100,00 %
24.10.2020 13:04 13,8 C 12,8 C 12,8 C 90 % 1013,1 hPa 0,0 l/m 0 min 0 min 76 W/m 35,4 km/h (5 Bft) 97,83 %
24.10.2020 13:02 13,8 C 13,3 C 13,4 C 90 % 1013,1 hPa 0,0 l/m 0 min 0 min 71 W/m 22,5 km/h (4 Bft) 100,00 %
24.10.2020 13:00 13,8 C 13,3 C 13,4 C 90 % 1013,2 hPa 0,0 l/m 0 min 0 min 73 W/m 38,6 km/h (5 Bft) 100,00 %
24.10.2020 12:58 13,8 C 13,9 C 13,4 C 90 % 1013,1 hPa 0,0 l/m 0 min 0 min 84 W/m 22,5 km/h (4 Bft) 100,00 %
24.10.2020 12:56 13,8 C 13,3 C 13,4 C 90 % 1013,1 hPa 0,0 l/m 0 min 0 min 97 W/m 32,2 km/h (5 Bft) 100,00 %
24.10.2020 12:54 13,8 C 13,3 C 13,4 C 90 % 1013,1 hPa 0,0 l/m 0 min 0 min 95 W/m 25,7 km/h (4 Bft) 100,00 %
24.10.2020 12:52 13,7 C 13,3 C 13,4 C 90 % 1013,2 hPa 0,0 l/m 0 min 0 min 91 W/m 22,5 km/h (4 Bft) 97,87 %
24.10.2020 12:50 13,7 C 13,3 C 13,4 C 90 % 1013,2 hPa 0,0 l/m 0 min 0 min 80 W/m 35,4 km/h (5 Bft) 97,56 %
24.10.2020 12:48 13,7 C 13,3 C 13,4 C 90 % 1013,2 hPa 0,0 l/m 0 min 0 min 78 W/m 25,7 km/h (4 Bft) 97,83 %
24.10.2020 12:46 13,6 C 13,3 C 13,4 C 90 % 1013,2 hPa 0,0 l/m 0 min 0 min 74 W/m 35,4 km/h (5 Bft) 100,00 %
24.10.2020 12:44 13,6 C 13,3 C 13,4 C 90 % 1013,1 hPa 0,0 l/m 0 min 0 min 73 W/m 29,0 km/h (5 Bft) 100,00 %
24.10.2020 12:42 13,6 C 13,3 C 13,4 C 90 % 1013,1 hPa 0,0 l/m 0 min 0 min 69 W/m 35,4 km/h (5 Bft) 95,74 %
24.10.2020 12:40 13,6 C 13,3 C 13,4 C 90 % 1013,1 hPa 0,0 l/m 0 min 0 min 70 W/m 32,2 km/h (5 Bft) 97,87 %
24.10.2020 12:38 13,6 C 13,3 C 12,8 C 90 % 1013,1 hPa 0,0 l/m 0 min 0 min 70 W/m 38,6 km/h (5 Bft) 98,11 %
24.10.2020 12:36 13,6 C 13,3 C 12,8 C 90 % 1013,2 hPa 0,0 l/m 0 min 0 min 65 W/m 35,4 km/h (5 Bft) 95,74 %
24.10.2020 12:34 13,6 C 13,3 C 12,8 C 90 % 1013,2 hPa 0,0 l/m 0 min 0 min 59 W/m 41,8 km/h (6 Bft) 97,87 %
24.10.2020 12:32 13,6 C 12,8 C 12,8 C 90 % 1013,2 hPa 0,0 l/m 0 min 0 min 60 W/m 32,2 km/h (5 Bft) 97,87 %
24.10.2020 12:30 13,7 C 12,8 C 12,8 C 90 % 1013,2 hPa 0,0 l/m 0 min 0 min 64 W/m 38,6 km/h (5 Bft) 97,83 %
24.10.2020 12:28 13,7 C 12,8 C 12,8 C 90 % 1013,2 hPa 0,0 l/m 0 min 0 min 80 W/m 19,3 km/h (3 Bft) 97,87 %
24.10.2020 12:26 13,6 C 12,8 C 12,8 C 90 % 1013,2 hPa 0,0 l/m 0 min 0 min 87 W/m 22,5 km/h (4 Bft) 97,87 %
24.10.2020 12:24 13,6 C 13,3 C 13,4 C 90 % 1013,2 hPa 0,0 l/m 0 min 0 min 97 W/m 35,4 km/h (5 Bft) 97,87 %
24.10.2020 12:22 13,6 C 13,3 C 13,4 C 90 % 1013,1 hPa 0,0 l/m 0 min 0 min 117 W/m 3,2 km/h (1 Bft) 97,87 %
24.10.2020 12:20 13,6 C 13,3 C 13,4 C 90 % 1013,1 hPa 0,0 l/m 0 min 0 min 105 W/m 22,5 km/h (4 Bft) 97,87 %
24.10.2020 12:18 13,6 C 13,3 C 13,4 C 90 % 1013,1 hPa 0,0 l/m 0 min 0 min 80 W/m 19,3 km/h (3 Bft) 93,48 %
24.10.2020 12:16 13,6 C 13,3 C 12,8 C 90 % 1013,1 hPa 0,0 l/m 0 min 0 min 68 W/m 22,5 km/h (4 Bft) 97,92 %
24.10.2020 12:14 13,6 C 13,3 C 12,8 C 90 % 1013,1 hPa 0,0 l/m 0 min 0 min 82 W/m 19,3 km/h (3 Bft) 97,83 %
24.10.2020 12:12 13,6 C 12,8 C 13,4 C 90 % 1013,1 hPa 0,0 l/m 0 min 0 min 96 W/m 25,7 km/h (4 Bft) 95,74 %
24.10.2020 12:10 13,6 C 13,3 C 13,4 C 90 % 1013,3 hPa 0,0 l/m 0 min 0 min 123 W/m 32,2 km/h (5 Bft) 97,87 %
24.10.2020 12:08 13,6 C 13,9 C 13,4 C 90 % 1013,1 hPa 0,0 l/m 0 min 0 min 107 W/m 29,0 km/h (5 Bft) 97,89 %
24.10.2020 12:04 13,5 C 13,9 C 13,4 C 91 % 1013,1 hPa 0,0 l/m 0 min 0 min 113 W/m 19,3 km/h (3 Bft) 97,83 %
24.10.2020 12:02 13,5 C 13,3 C 13,4 C 91 % 1013,1 hPa 0,0 l/m 0 min 0 min 120 W/m 25,7 km/h (4 Bft) 93,75 %
24.10.2020 12:00 13,5 C 13,3 C 13,4 C 91 % 1013,1 hPa 0,0 l/m 0 min 0 min 107 W/m 22,5 km/h (4 Bft) 97,87 %
24.10.2020 11:58 13,5 C 13,3 C 13,4 C 91 % 1013,1 hPa 0,0 l/m 0 min 0 min 129 W/m 22,5 km/h (4 Bft) 97,87 %
24.10.2020 11:56 13,5 C 13,3 C 13,4 C 91 % 1013,1 hPa 0,0 l/m 0 min 0 min 151 W/m 29,0 km/h (5 Bft) 97,87 %
24.10.2020 11:54 13,5 C 13,3 C 13,4 C 91 % 1013,2 hPa 0,0 l/m 0 min 0 min 157 W/m 41,8 km/h (6 Bft) 97,87 %
24.10.2020 11:52 13,5 C 12,8 C 12,8 C 91 % 1013,3 hPa 0,0 l/m 0 min 0 min 153 W/m 19,3 km/h (3 Bft) 100,00 %
24.10.2020 11:50 13,5 C 12,8 C 12,8 C 91 % 1013,2 hPa 0,0 l/m 0 min 0 min 118 W/m 35,4 km/h (5 Bft) 100,00 %
24.10.2020 11:48 13,5 C 13,3 C 12,8 C 91 % 1013,1 hPa 0,0 l/m 0 min 0 min 123 W/m 29,0 km/h (5 Bft) 100,00 %
24.10.2020 11:46 13,5 C 13,3 C 12,8 C 91 % 1013,1 hPa 0,0 l/m 0 min 0 min 101 W/m 29,0 km/h (5 Bft) 96,75 %
24.10.2020 11:40 13,5 C 12,8 C 12,8 C 91 % 1013,2 hPa 0,0 l/m 0 min 0 min 175 W/m 22,5 km/h (4 Bft) 98,25 %
24.10.2020 11:35 13,5 C 12,2 C 12,2 C 90 % 1013,2 hPa 0,0 l/m 0 min 0 min 116 W/m 29,0 km/h (5 Bft) 100,00 %
24.10.2020 11:30 13,5 C 12,8 C 12,8 C 90 % 1013,1 hPa 0,0 l/m 0 min 0 min 97 W/m 25,7 km/h (4 Bft) 100,00 %
24.10.2020 11:28 13,5 C 12,8 C 12,8 C 90 % 1013,2 hPa 0,0 l/m 0 min 0 min 97 W/m 25,7 km/h (4 Bft) 97,87 %
24.10.2020 11:26 13,5 C 12,8 C 12,8 C 90 % 1013,1 hPa 0,0 l/m 0 min 0 min 100 W/m 25,7 km/h (4 Bft) 95,74 %
24.10.2020 11:24 13,5 C 12,8 C 12,8 C 90 % 1013,1 hPa 0,0 l/m 0 min 0 min 91 W/m 32,2 km/h (5 Bft) 95,65 %
24.10.2020 11:22 13,5 C 12,8 C 12,8 C 90 % 1013,1 hPa 0,0 l/m 0 min 0 min 88 W/m 29,0 km/h (5 Bft) 95,74 %
24.10.2020 11:20 13,5 C 13,3 C 13,4 C 90 % 1013,1 hPa 0,0 l/m 0 min 0 min 102 W/m 25,7 km/h (4 Bft) 95,74 %
24.10.2020 11:18 13,5 C 13,3 C 13,4 C 90 % 1013,2 hPa 0,0 l/m 0 min 0 min 105 W/m 29,0 km/h (5 Bft) 95,74 %
24.10.2020 11:16 13,5 C 13,3 C 13,4 C 91 % 1013,1 hPa 0,0 l/m 0 min 0 min 108 W/m 38,6 km/h (5 Bft) 95,74 %
24.10.2020 11:14 13,5 C 13,9 C 12,8 C 91 % 1013,0 hPa 0,0 l/m 0 min 0 min 100 W/m 38,6 km/h (5 Bft) 97,87 %
24.10.2020 11:12 13,4 C 13,3 C 12,8 C 92 % 1013,0 hPa 0,0 l/m 0 min 0 min 89 W/m 6,4 km/h (2 Bft) 93,48 %
24.10.2020 11:10 13,4 C 13,3 C 12,8 C 92 % 1013,0 hPa 0,0 l/m 0 min 0 min 78 W/m 29,0 km/h (5 Bft) 95,74 %
24.10.2020 11:08 13,4 C 13,3 C 12,8 C 92 % 1013,0 hPa 0,0 l/m 0 min 0 min 74 W/m 22,5 km/h (4 Bft) 95,74 %
24.10.2020 11:06 13,4 C 13,3 C 12,8 C 93 % 1013,0 hPa 0,0 l/m 0 min 0 min 74 W/m 25,7 km/h (4 Bft) 95,74 %
24.10.2020 11:04 13,4 C 13,3 C 12,8 C 93 % 1012,9 hPa 0,0 l/m 0 min 0 min 79 W/m 19,3 km/h (3 Bft) 95,74 %
24.10.2020 11:02 13,4 C 13,3 C 12,8 C 93 % 1012,9 hPa 0,0 l/m 0 min 0 min 83 W/m 12,9 km/h (3 Bft) 93,62 %
24.10.2020 11:00 13,4 C 13,3 C 12,8 C 93 % 1012,9 hPa 0,0 l/m 0 min 0 min 86 W/m 25,7 km/h (4 Bft) 93,48 %
24.10.2020 10:58 13,4 C 13,3 C 12,8 C 94 % 1012,8 hPa 0,0 l/m 0 min 0 min 83 W/m 0,0 km/h (0 Bft) 95,74 %
24.10.2020 10:56 13,3 C 13,3 C 12,8 C 94 % 1012,9 hPa 0,0 l/m 0 min 0 min 76 W/m 12,9 km/h (3 Bft) 95,74 %
24.10.2020 10:54 13,3 C 13,3 C 12,8 C 94 % 1012,9 hPa 0,0 l/m 0 min 0 min 76 W/m 22,5 km/h (4 Bft) 97,87 %
24.10.2020 10:52 13,3 C 13,3 C 12,8 C 95 % 1012,9 hPa 0,0 l/m 0 min 0 min 89 W/m 12,9 km/h (3 Bft) 95,74 %
24.10.2020 10:50 13,3 C 13,3 C 12,8 C 95 % 1012,8 hPa 0,0 l/m 0 min 0 min 86 W/m 0,0 km/h (0 Bft) 97,83 %
24.10.2020 10:48 13,2 C 13,9 C 12,8 C 95 % 1012,9 hPa 0,0 l/m 0 min 0 min 110 W/m 3,2 km/h (1 Bft) 97,87 %
24.10.2020 10:46 13,2 C 13,9 C 12,8 C 95 % 1013,0 hPa 0,0 l/m 0 min 0 min 119 W/m 12,9 km/h (3 Bft) 93,62 %
24.10.2020 10:44 13,1 C 13,3 C 12,8 C 96 % 1013,0 hPa 0,0 l/m 0 min 0 min 105 W/m 3,2 km/h (1 Bft) 97,87 %
24.10.2020 10:42 13,1 C 13,3 C 12,8 C 96 % 1012,9 hPa 0,0 l/m 0 min 0 min 96 W/m 19,3 km/h (3 Bft) 97,87 %
24.10.2020 10:40 13,0 C 13,3 C 12,8 C 96 % 1012,9 hPa 0,0 l/m 0 min 0 min 103 W/m 16,1 km/h (3 Bft) 97,87 %
24.10.2020 10:38 13,0 C 13,3 C 12,8 C 96 % 1012,9 hPa 0,0 l/m 0 min 0 min 116 W/m 19,3 km/h (3 Bft) 97,83 %
24.10.2020 10:36 13,0 C 13,3 C 12,8 C 97 % 1013,0 hPa 0,0 l/m 0 min 0 min 87 W/m 19,3 km/h (3 Bft) 95,74 %
24.10.2020 10:34 12,9 C 13,3 C 12,8 C 97 % 1013,0 hPa 0,0 l/m 0 min 0 min 79 W/m 19,3 km/h (3 Bft) 97,87 %
24.10.2020 10:32 12,9 C 13,3 C 12,8 C 97 % 1013,0 hPa 0,0 l/m 0 min 0 min 100 W/m 29,0 km/h (5 Bft) 97,87 %
24.10.2020 10:30 12,8 C 13,9 C 12,8 C 97 % 1012,9 hPa 0,0 l/m 0 min 0 min 122 W/m 22,5 km/h (4 Bft) 97,87 %
24.10.2020 10:28 12,8 C 13,9 C 12,8 C 97 % 1012,9 hPa 0,0 l/m 0 min 0 min 127 W/m 32,2 km/h (5 Bft) 97,87 %
24.10.2020 10:26 12,8 C 13,9 C 12,8 C 97 % 1012,9 hPa 0,0 l/m 2 min 0 min 154 W/m 19,3 km/h (3 Bft) 97,83 %
24.10.2020 10:24 12,7 C 13,9 C 12,8 C 98 % 1012,9 hPa 0,0 l/m 2 min 0 min 175 W/m 19,3 km/h (3 Bft) 97,87 %
24.10.2020 10:22 12,6 C 13,9 C 12,8 C 98 % 1012,9 hPa 0,0 l/m 2 min 0 min 144 W/m 16,1 km/h (3 Bft) 97,87 %
24.10.2020 10:20 12,6 C 13,9 C 12,8 C 98 % 1012,9 hPa 0,0 l/m 0 min 0 min 119 W/m 22,5 km/h (4 Bft) 97,87 %
24.10.2020 10:18 12,5 C 13,9 C 12,2 C 98 % 1012,8 hPa 0,0 l/m 0 min 0 min 124 W/m 19,3 km/h (3 Bft) 93,62 %
24.10.2020 10:16 12,5 C 13,3 C 12,2 C 98 % 1012,8 hPa 0,0 l/m 0 min 0 min 100 W/m 19,3 km/h (3 Bft) 97,87 %
24.10.2020 10:14 12,5 C 13,3 C 12,2 C 98 % 1012,9 hPa 0,0 l/m 0 min 0 min 98 W/m 19,3 km/h (3 Bft) 97,83 %
24.10.2020 10:12 12,4 C 13,3 C 11,7 C 98 % 1012,9 hPa 0,0 l/m 0 min 0 min 96 W/m 19,3 km/h (3 Bft) 97,87 %
24.10.2020 10:10 12,4 C 13,3 C 11,7 C 98 % 1012,9 hPa 0,0 l/m 0 min 0 min 102 W/m 3,2 km/h (1 Bft) 95,74 %
24.10.2020 10:08 12,4 C 13,3 C 11,7 C 98 % 1012,9 hPa 0,0 l/m 0 min 0 min 96 W/m 0,0 km/h (0 Bft) 97,87 %
24.10.2020 10:06 12,3 C 12,8 C 11,7 C 99 % 1012,9 hPa 0,0 l/m 0 min 0 min 73 W/m 3,2 km/h (1 Bft) 97,87 %
24.10.2020 10:04 12,3 C 12,8 C 11,7 C 98 % 1013,0 hPa 0,0 l/m 0 min 0 min 62 W/m 16,1 km/h (3 Bft) 95,74 %
24.10.2020 10:02 12,3 C 12,8 C 11,7 C 98 % 1012,9 hPa 0,0 l/m 0 min 0 min 66 W/m 29,0 km/h (5 Bft) 97,83 %
24.10.2020 10:00 12,3 C 12,8 C 11,7 C 98 % 1013,0 hPa 0,0 l/m 0 min 0 min 61 W/m 16,1 km/h (3 Bft) 93,62 %
24.10.2020 09:58 12,3 C 12,8 C 11,7 C 98 % 1013,0 hPa 0,0 l/m 0 min 0 min 52 W/m 16,1 km/h (3 Bft) 95,74 %
24.10.2020 09:56 12,2 C 12,8 C 11,7 C 98 % 1012,9 hPa 0,0 l/m 0 min 0 min 52 W/m 12,9 km/h (3 Bft) 97,87 %
24.10.2020 09:54 12,2 C 12,8 C 11,7 C 99 % 1012,9 hPa 0,0 l/m 0 min 0 min 64 W/m 12,9 km/h (3 Bft) 95,74 %
24.10.2020 09:52 12,1 C 12,8 C 11,7 C 99 % 1013,0 hPa 0,0 l/m 0 min 0 min 63 W/m 12,9 km/h (3 Bft) 97,14 %
24.10.2020 09:50 12,1 C 12,8 C 11,7 C 99 % 1013,0 hPa 0,0 l/m 0 min 0 min 61 W/m 16,1 km/h (3 Bft) 100,00 %
24.10.2020 09:48 12,1 C 12,8 C 11,7 C 99 % 1013,0 hPa 0,0 l/m 0 min 0 min 67 W/m 3,2 km/h (1 Bft) 97,87 %
24.10.2020 09:46 12,1 C 12,2 C 11,7 C 99 % 1013,0 hPa 0,0 l/m 0 min 0 min 67 W/m 9,7 km/h (2 Bft) 93,62 %
24.10.2020 09:44 12,1 C 12,2 C 11,7 C 99 % 1013,0 hPa 0,0 l/m 0 min 0 min 64 W/m 16,1 km/h (3 Bft) 97,87 %
24.10.2020 09:42 12,0 C 12,2 C 11,7 C 99 % 1013,0 hPa 0,0 l/m 0 min 0 min 60 W/m 12,9 km/h (3 Bft) 97,83 %
24.10.2020 09:40 12,0 C 12,2 C 11,7 C 99 % 1013,0 hPa 0,0 l/m 0 min 0 min 63 W/m 22,5 km/h (4 Bft) 97,87 %
24.10.2020 09:38 12,0 C 12,2 C 11,7 C 99 % 1013,0 hPa 0,0 l/m 0 min 0 min 64 W/m 0,0 km/h (0 Bft) 95,74 %
24.10.2020 09:36 12,0 C 12,2 C 11,1 C 99 % 1013,0 hPa 0,0 l/m 0 min 0 min 58 W/m 3,2 km/h (1 Bft) 97,87 %
24.10.2020 09:34 12,0 C 12,2 C 11,1 C 99 % 1013,0 hPa 0,0 l/m 0 min 0 min 53 W/m 0,0 km/h (0 Bft) 97,87 %
24.10.2020 09:32 12,0 C 12,2 C 11,1 C 99 % 1013,0 hPa 0,0 l/m 0 min 0 min 48 W/m 6,4 km/h (2 Bft) 97,92 %
24.10.2020 09:30 12,0 C 12,2 C 11,1 C 99 % 1013,0 hPa 0,0 l/m 0 min 0 min 47 W/m 0,0 km/h (0 Bft) 97,83 %
24.10.2020 09:28 11,9 C 12,2 C 11,1 C 99 % 1012,9 hPa 0,0 l/m 0 min 0 min 47 W/m 0,0 km/h (0 Bft) 97,87 %
24.10.2020 09:26 11,9 C 12,2 C 11,1 C 99 % 1012,9 hPa 0,0 l/m 0 min 0 min 47 W/m 0,0 km/h (0 Bft) 97,87 %
24.10.2020 09:24 11,9 C 12,2 C 11,1 C 99 % 1012,9 hPa 0,0 l/m 0 min 0 min 43 W/m 6,4 km/h (2 Bft) 95,74 %
24.10.2020 09:22 11,9 C 11,7 C 11,1 C 99 % 1012,8 hPa 0,0 l/m 0 min 0 min 43 W/m 0,0 km/h (0 Bft) 95,74 %
24.10.2020 09:20 11,9 C 11,7 C 11,1 C 99 % 1012,9 hPa 0,0 l/m 0 min 0 min 39 W/m 0,0 km/h (0 Bft) 97,87 %
24.10.2020 09:18 11,9 C 11,7 C 11,1 C 99 % 1012,9 hPa 0,0 l/m 0 min 0 min 32 W/m 0,0 km/h (0 Bft) 97,83 %
24.10.2020 09:16 11,9 C 11,7 C 11,1 C 99 % 1012,9 hPa 0,0 l/m 0 min 0 min 32 W/m 0,0 km/h (0 Bft) 97,87 %
24.10.2020 09:14 11,9 C 11,7 C 11,1 C 99 % 1012,9 hPa 0,0 l/m 0 min 0 min 33 W/m 0,0 km/h (0 Bft) 100,00 %
24.10.2020 09:12 11,8 C 11,7 C 11,1 C 99 % 1012,9 hPa 0,0 l/m 0 min 0 min 31 W/m 0,0 km/h (0 Bft) 100,00 %
24.10.2020 09:10 11,8 C 11,7 C 11,1 C 99 % 1012,9 hPa 0,0 l/m 0 min 0 min 32 W/m 0,0 km/h (0 Bft) 100,00 %
24.10.2020 09:08 11,8 C 11,7 C 11,1 C 99 % 1012,8 hPa 0,0 l/m 0 min 0 min 32 W/m 3,2 km/h (1 Bft) 100,00 %
24.10.2020 09:06 11,8 C 11,7 C 11,1 C 99 % 1012,8 hPa 0,0 l/m 0 min 0 min 31 W/m 0,0 km/h (0 Bft) 100,00 %
24.10.2020 09:04 11,8 C 11,7 C 11,1 C 99 % 1012,8 hPa 0,0 l/m 0 min 0 min 26 W/m 0,0 km/h (0 Bft) 100,00 %
24.10.2020 09:02 11,8 C 11,7 C 11,1 C 99 % 1012,8 hPa 0,0 l/m 0 min 0 min 23 W/m 0,0 km/h (0 Bft) 100,00 %
24.10.2020 09:00 11,8 C 11,7 C 11,1 C 99 % 1012,8 hPa 0,0 l/m 0 min 0 min 19 W/m 3,2 km/h (1 Bft) 100,00 %
24.10.2020 08:58 11,8 C 11,7 C 11,1 C 99 % 1012,8 hPa 0,0 l/m 0 min 0 min 19 W/m 0,0 km/h (0 Bft) 97,87 %
24.10.2020 08:56 11,8 C 11,7 C 11,1 C 99 % 1012,8 hPa 0,0 l/m 0 min 0 min 19 W/m 0,0 km/h (0 Bft) 100,00 %
24.10.2020 08:54 11,8 C 11,7 C 11,1 C 99 % 1012,8 hPa 0,0 l/m 0 min 0 min 16 W/m 0,0 km/h (0 Bft) 97,87 %
24.10.2020 08:52 11,8 C 11,7 C 11,1 C 99 % 1012,8 hPa 0,0 l/m 0 min 0 min 14 W/m 3,2 km/h (1 Bft) 97,87 %
24.10.2020 08:50 11,8 C 11,7 C 11,1 C 99 % 1012,8 hPa 0,0 l/m 0 min 0 min 15 W/m 3,2 km/h (1 Bft) 97,87 %
24.10.2020 08:48 11,8 C 11,7 C 11,1 C 99 % 1012,7 hPa 0,0 l/m 0 min 0 min 16 W/m 0,0 km/h (0 Bft) 97,87 %
24.10.2020 08:46 11,8 C 11,7 C 11,1 C 99 % 1012,7 hPa 0,0 l/m 0 min 0 min 15 W/m 0,0 km/h (0 Bft) 97,87 %
24.10.2020 08:44 11,8 C 11,7 C 11,1 C 99 % 1012,7 hPa 0,0 l/m 0 min 0 min 12 W/m 0,0 km/h (0 Bft) 97,83 %
24.10.2020 08:42 11,8 C 11,7 C 11,1 C 99 % 1012,8 hPa 0,0 l/m 0 min 0 min 11 W/m 0,0 km/h (0 Bft) 97,87 %
24.10.2020 08:40 11,8 C 11,7 C 11,1 C 99 % 1012,8 hPa 0,0 l/m 0 min 0 min 12 W/m 0,0 km/h (0 Bft) 97,87 %
24.10.2020 08:38 11,8 C 11,7 C 11,1 C 99 % 1012,8 hPa 0,0 l/m 0 min 0 min 12 W/m 0,0 km/h (0 Bft) 95,74 %
24.10.2020 08:36 11,8 C 11,7 C 11,1 C 99 % 1012,8 hPa 0,0 l/m 0 min 0 min 11 W/m 0,0 km/h (0 Bft) 95,74 %
24.10.2020 08:34 11,7 C 11,7 C 10,6 C 99 % 1012,8 hPa 0,0 l/m 0 min 0 min 11 W/m 0,0 km/h (0 Bft) 97,87 %
24.10.2020 08:32 11,8 C 11,7 C 10,6 C 99 % 1012,7 hPa 0,0 l/m 0 min 0 min 9 W/m 0,0 km/h (0 Bft) 97,87 %
24.10.2020 08:30 11,8 C 11,7 C 11,1 C 99 % 1012,7 hPa 0,0 l/m 0 min 0 min 9 W/m 3,2 km/h (1 Bft) 97,87 %
24.10.2020 08:28 11,8 C 11,7 C 11,1 C 99 % 1012,7 hPa 0,0 l/m 0 min 0 min 7 W/m 3,2 km/h (1 Bft) 97,87 %
24.10.2020 08:26 11,7 C 11,1 C 10,6 C 99 % 1012,8 hPa 0,0 l/m 0 min 0 min 6 W/m 0,0 km/h (0 Bft) 97,87 %
24.10.2020 08:24 11,8 C 11,1 C 11,1 C 99 % 1012,8 hPa 0,0 l/m 0 min 0 min 5 W/m 0,0 km/h (0 Bft) 95,74 %
24.10.2020 08:22 11,8 C 11,1 C 11,1 C 99 % 1012,7 hPa 0,0 l/m 0 min 0 min 3 W/m 0,0 km/h (0 Bft) 97,83 %
24.10.2020 08:20 11,8 C 11,1 C 10,6 C 99 % 1012,8 hPa 0,0 l/m 0 min 0 min 0 W/m 6,4 km/h (2 Bft) 97,87 %
24.10.2020 08:18 11,7 C 11,1 C 10,6 C 99 % 1012,8 hPa 0,0 l/m 0 min 0 min 0 W/m 0,0 km/h (0 Bft) 95,74 %
24.10.2020 08:16 11,7 C 11,1 C 10,6 C 99 % 1012,8 hPa 0,0 l/m 0 min 0 min 0 W/m 3,2 km/h (1 Bft) 97,87 %
24.10.2020 08:14 11,8 C 11,1 C 10,6 C 99 % 1012,7 hPa 0,0 l/m 0 min 0 min 0 W/m 0,0 km/h (0 Bft) 97,87 %
24.10.2020 08:12 11,8 C 11,1 C 10,6 C 99 % 1012,8 hPa 0,0 l/m 0 min 0 min 0 W/m 3,2 km/h (1 Bft) 97,87 %
24.10.2020 08:10 11,8 C 11,1 C 10,6 C 99 % 1012,8 hPa 0,0 l/m 0 min 0 min 0 W/m 0,0 km/h (0 Bft) 97,83 %
24.10.2020 08:08 11,8 C 11,1 C 11,1 C 99 % 1012,8 hPa 0,0 l/m 0 min 0 min 0 W/m 12,9 km/h (3 Bft) 95,74 %
24.10.2020 08:06 11,8 C 11,1 C 11,1 C 99 % 1012,7 hPa 0,0 l/m 0 min 0 min 0 W/m 16,1 km/h (3 Bft) 100,00 %
24.10.2020 08:04 11,8 C 11,1 C 10,6 C 99 % 1012,7 hPa 0,0 l/m 0 min 0 min 0 W/m 3,2 km/h (1 Bft) 100,00 %
24.10.2020 08:02 11,8 C 11,1 C 10,6 C 99 % 1012,8 hPa 0,0 l/m 0 min 0 min 0 W/m 0,0 km/h (0 Bft) 97,92 %
24.10.2020 08:00 11,7 C 11,1 C 10,6 C 99 % 1012,8 hPa 0,0 l/m 0 min 0 min 0 W/m 0,0 km/h (0 Bft) 97,87 %
24.10.2020 07:58 11,7 C 11,1 C 10,6 C 99 % 1012,7 hPa 0,0 l/m 0 min 0 min 0 W/m 0,0 km/h (0 Bft) 97,83 %
24.10.2020 07:56 11,7 C 11,1 C 10,6 C 99 % 1012,7 hPa 0,0 l/m 0 min 0 min 0 W/m 0,0 km/h (0 Bft) 100,00 %
24.10.2020 07:54 11,7 C 11,1 C 10,6 C 99 % 1012,8 hPa 0,0 l/m 0 min 0 min 0 W/m 16,1 km/h (3 Bft) 100,00 %
24.10.2020 07:52 11,7 C 11,1 C 11,1 C 99 % 1012,8 hPa 0,0 l/m 0 min 0 min 0 W/m 12,9 km/h (3 Bft) 100,00 %
24.10.2020 07:50 11,7 C 11,1 C 10,6 C 99 % 1012,7 hPa 0,0 l/m 0 min 0 min 0 W/m 3,2 km/h (1 Bft) 100,00 %
24.10.2020 07:48 11,8 C 11,1 C 10,6 C 99 % 1012,7 hPa 0,0 l/m 0 min 0 min 0 W/m 0,0 km/h (0 Bft) 97,87 %
24.10.2020 07:46 11,7 C 11,1 C 10,6 C 99 % 1012,7 hPa 0,0 l/m 0 min 0 min 0 W/m 0,0 km/h (0 Bft) 97,83 %
24.10.2020 07:44 11,7 C 11,1 C 10,6 C 99 % 1012,7 hPa 0,0 l/m 0 min 0 min 0 W/m 0,0 km/h (0 Bft) 100,00 %
24.10.2020 07:42 11,8 C 11,1 C 10,6 C 99 % 1012,7 hPa 0,0 l/m 0 min 0 min 0 W/m 3,2 km/h (1 Bft) 100,00 %
24.10.2020 07:40 11,8 C 11,1 C 10,6 C 99 % 1012,7 hPa 0,0 l/m 0 min 0 min 0 W/m 3,2 km/h (1 Bft) 100,00 %
24.10.2020 07:38 11,8 C 11,1 C 10,6 C 99 % 1012,7 hPa 0,0 l/m 0 min 0 min 0 W/m 6,4 km/h (2 Bft) 100,00 %
24.10.2020 07:36 11,8 C 11,1 C 10,6 C 99 % 1012,7 hPa 0,0 l/m 0 min 0 min 0 W/m 6,4 km/h (2 Bft) 100,00 %
24.10.2020 07:34 11,8 C 11,1 C 10,6 C 99 % 1012,7 hPa 0,0 l/m 0 min 0 min 0 W/m 6,4 km/h (2 Bft) 100,00 %
24.10.2020 07:32 11,8 C 11,1 C 10,6 C 99 % 1012,7 hPa 0,0 l/m 0 min 0 min 0 W/m 6,4 km/h (2 Bft) 97,83 %
24.10.2020 07:30 11,8 C 11,1 C 10,6 C 99 % 1012,7 hPa 0,0 l/m 0 min 0 min 0 W/m 3,2 km/h (1 Bft) 100,00 %
24.10.2020 07:28 11,8 C 11,1 C 10,6 C 99 % 1012,8 hPa 0,0 l/m 0 min 0 min 0 W/m 0,0 km/h (0 Bft) 97,87 %
24.10.2020 07:26 11,8 C 11,1 C 10,6 C 99 % 1012,8 hPa 0,0 l/m 0 min 0 min 0 W/m 6,4 km/h (2 Bft) 100,00 %
24.10.2020 07:24 11,8 C 11,1 C 11,1 C 99 % 1012,7 hPa 0,0 l/m 0 min 0 min 0 W/m 0,0 km/h (0 Bft) 97,87 %
24.10.2020 07:22 11,8 C 11,1 C 11,1 C 99 % 1012,8 hPa 0,0 l/m 0 min 0 min 0 W/m 0,0 km/h (0 Bft) 100,00 %
24.10.2020 07:20 11,8 C 11,1 C 10,6 C 99 % 1012,8 hPa 0,0 l/m 0 min 0 min 0 W/m 3,2 km/h (1 Bft) 100,00 %
24.10.2020 07:18 11,8 C 11,1 C 11,1 C 99 % 1012,9 hPa 0,0 l/m 0 min 0 min 0 W/m 3,2 km/h (1 Bft) 97,87 %
24.10.2020 07:16 11,8 C 11,1 C 11,1 C 99 % 1012,9 hPa 0,0 l/m 0 min 0 min 0 W/m 3,2 km/h (1 Bft) 95,74 %
24.10.2020 07:14 11,8 C 11,1 C 11,1 C 99 % 1012,8 hPa 0,0 l/m 0 min 0 min 0 W/m 12,9 km/h (3 Bft) 97,87 %
24.10.2020 07:12 11,8 C 11,1 C 11,1 C 99 % 1012,8 hPa 0,0 l/m 0 min 0 min 0 W/m 6,4 km/h (2 Bft) 97,87 %
24.10.2020 07:10 11,8 C 11,1 C 11,1 C 99 % 1012,9 hPa 0,0 l/m 0 min 0 min 0 W/m 3,2 km/h (1 Bft) 95,74 %
24.10.2020 07:08 11,8 C 11,1 C 11,1 C 99 % 1012,8 hPa 0,0 l/m 0 min 0 min 0 W/m 0,0 km/h (0 Bft) 97,83 %
24.10.2020 07:06 11,8 C 11,1 C 11,1 C 99 % 1012,8 hPa 0,0 l/m 0 min 0 min 0 W/m 0,0 km/h (0 Bft) 95,74 %
24.10.2020 07:04 11,8 C 11,1 C 11,1 C 99 % 1012,8 hPa 0,0 l/m 0 min 0 min 0 W/m 3,2 km/h (1 Bft) 97,87 %
24.10.2020 07:02 11,8 C 11,1 C 11,1 C 99 % 1012,8 hPa 0,0 l/m 0 min 0 min 0 W/m 9,7 km/h (2 Bft) 97,87 %
24.10.2020 07:00 11,8 C 11,1 C 11,1 C 99 % 1012,8 hPa 0,0 l/m 0 min 0 min 0 W/m 12,9 km/h (3 Bft) 95,74 %
24.10.2020 06:58 11,8 C 11,1 C 11,1 C 99 % 1012,9 hPa 0,0 l/m 0 min 0 min 0 W/m 0,0 km/h (0 Bft) 97,87 %
24.10.2020 06:56 11,8 C 11,1 C 11,1 C 99 % 1012,8 hPa 0,0 l/m 0 min 0 min 0 W/m 0,0 km/h (0 Bft) 97,83 %
24.10.2020 06:54 11,8 C 11,1 C 11,1 C 99 % 1012,8 hPa 0,0 l/m 0 min 0 min 0 W/m 0,0 km/h (0 Bft) 97,87 %
24.10.2020 06:52 11,8 C 11,1 C 11,1 C 99 % 1012,7 hPa 0,0 l/m 0 min 0 min 0 W/m 0,0 km/h (0 Bft) 97,87 %
24.10.2020 06:50 11,8 C 11,1 C 11,1 C 99 % 1012,7 hPa 0,0 l/m 0 min 0 min 0 W/m 16,1 km/h (3 Bft) 95,74 %
24.10.2020 06:48 11,8 C 11,1 C 11,1 C 99 % 1012,7 hPa 0,0 l/m 0 min 0 min 0 W/m 0,0 km/h (0 Bft) 97,87 %
24.10.2020 06:46 11,8 C 11,1 C 11,1 C 99 % 1012,8 hPa 0,0 l/m 0 min 0 min 0 W/m 0,0 km/h (0 Bft) 97,87 %
24.10.2020 06:44 11,8 C 11,1 C 11,1 C 100 % 1012,8 hPa 0,0 l/m 0 min 0 min 0 W/m 0,0 km/h (0 Bft) 97,83 %
24.10.2020 06:42 11,8 C 11,1 C 11,1 C 99 % 1012,8 hPa 0,0 l/m 0 min 0 min 0 W/m 0,0 km/h (0 Bft) 97,87 %
24.10.2020 06:40 11,7 C 11,1 C 11,1 C 99 % 1012,8 hPa 0,0 l/m 0 min 0 min 0 W/m 0,0 km/h (0 Bft) 97,87 %
24.10.2020 06:38 11,8 C 11,1 C 11,1 C 100 % 1012,8 hPa 0,0 l/m 0 min 0 min 0 W/m 0,0 km/h (0 Bft) 97,87 %
24.10.2020 06:36 11,7 C 11,1 C 11,1 C 100 % 1012,8 hPa 0,0 l/m 0 min 0 min 0 W/m 0,0 km/h (0 Bft) 97,87 %
24.10.2020 06:34 11,8 C 11,1 C 10,6 C 100 % 1012,8 hPa 0,0 l/m 0 min 0 min 0 W/m 0,0 km/h (0 Bft) 97,83 %
24.10.2020 06:32 11,7 C 11,1 C 11,1 C 99 % 1012,8 hPa 0,0 l/m 0 min 0 min 0 W/m 6,4 km/h (2 Bft) 97,87 %
24.10.2020 06:30 11,7 C 11,1 C 11,1 C 99 % 1012,8 hPa 0,0 l/m 0 min 0 min 0 W/m 3,2 km/h (1 Bft) 100,00 %
24.10.2020 06:28 11,7 C 11,1 C 11,1 C 99 % 1012,8 hPa 0,0 l/m 0 min 0 min 0 W/m 3,2 km/h (1 Bft) 97,87 %
24.10.2020 06:26 11,7 C 11,1 C 11,1 C 99 % 1012,8 hPa 0,0 l/m 0 min 0 min 0 W/m 12,9 km/h (3 Bft) 100,00 %
24.10.2020 06:24 11,7 C 11,1 C 11,1 C 99 % 1012,9 hPa 0,0 l/m 0 min 0 min 0 W/m 0,0 km/h (0 Bft) 100,00 %
24.10.2020 06:22 11,7 C 11,1 C 11,1 C 99 % 1012,9 hPa 0,0 l/m 0 min 0 min 0 W/m 3,2 km/h (1 Bft) 97,83 %
24.10.2020 06:20 11,7 C 11,1 C 11,1 C 99 % 1012,8 hPa 0,0 l/m 0 min 0 min 0 W/m 0,0 km/h (0 Bft) 100,00 %
24.10.2020 06:18 11,7 C 11,1 C 11,1 C 99 % 1012,9 hPa 0,0 l/m 0 min 0 min 0 W/m 0,0 km/h (0 Bft) 95,74 %
24.10.2020 06:16 11,6 C 11,1 C 11,1 C 99 % 1012,9 hPa 0,0 l/m 0 min 0 min 0 W/m 0,0 km/h (0 Bft) 97,83 %
24.10.2020 06:14 11,6 C 11,1 C 11,1 C 99 % 1012,9 hPa 0,0 l/m 0 min 0 min 0 W/m 3,2 km/h (1 Bft) 97,87 %
24.10.2020 06:12 11,6 C 11,1 C 11,1 C 99 % 1012,8 hPa 0,0 l/m 0 min 0 min 0 W/m 6,4 km/h (2 Bft) 97,87 %
24.10.2020 06:10 11,6 C 11,1 C 11,1 C 99 % 1012,8 hPa 0,0 l/m 0 min 0 min 0 W/m 6,4 km/h (2 Bft) 95,65 %
24.10.2020 06:08 11,6 C 11,1 C 11,1 C 99 % 1012,8 hPa 0,0 l/m 0 min 0 min 0 W/m 0,0 km/h (0 Bft) 95,83 %
24.10.2020 06:07 11,5 C 11,1 C 11,1 C 99 % 1012,8 hPa 0,0 l/m 0 min 0 min 0 W/m 12,9 km/h (3 Bft) 95,71 %
24.10.2020 06:04 11,5 C 11,1 C 11,1 C 99 % 1012,8 hPa 0,0 l/m 0 min 0 min 0 W/m 0,0 km/h (0 Bft) 97,87 %
24.10.2020 06:02 11,5 C 11,1 C 10,6 C 99 % 1012,8 hPa 0,0 l/m 0 min 0 min 0 W/m 3,2 km/h (1 Bft) 95,74 %
24.10.2020 06:00 11,5 C 11,1 C 10,6 C 99 % 1012,9 hPa 0,0 l/m 0 min 0 min 0 W/m 0,0 km/h (0 Bft) 95,74 %
24.10.2020 05:58 11,4 C 11,1 C 10,6 C 99 % 1012,8 hPa 0,0 l/m 0 min 0 min 0 W/m 3,2 km/h (1 Bft) 97,83 %
24.10.2020 05:56 11,4 C 11,1 C 10,6 C 99 % 1012,8 hPa 0,0 l/m 0 min 0 min 0 W/m 6,4 km/h (2 Bft) 95,74 %
24.10.2020 05:54 11,4 C 11,1 C 10,6 C 99 % 1012,8 hPa 0,0 l/m 0 min 0 min 0 W/m 19,3 km/h (3 Bft) 97,87 %
24.10.2020 05:52 11,3 C 11,1 C 10,6 C 99 % 1012,8 hPa 0,0 l/m 0 min 0 min 0 W/m 3,2 km/h (1 Bft) 95,74 %
24.10.2020 05:50 11,3 C 11,1 C 10,6 C 99 % 1012,8 hPa 0,0 l/m 0 min 0 min 0 W/m 12,9 km/h (3 Bft) 95,74 %
24.10.2020 05:48 11,3 C 10,6 C 10,6 C 99 % 1012,8 hPa 0,0 l/m 0 min 0 min 0 W/m 12,9 km/h (3 Bft) 97,87 %
24.10.2020 05:46 11,2 C 10,6 C 10,6 C 99 % 1012,8 hPa 0,0 l/m 0 min 0 min 0 W/m 6,4 km/h (2 Bft) 95,65 %
24.10.2020 05:44 11,2 C 10,6 C 10,6 C 99 % 1012,8 hPa 0,0 l/m 0 min 0 min 0 W/m 0,0 km/h (0 Bft) 93,62 %
24.10.2020 05:42 11,1 C 10,6 C 10,6 C 99 % 1012,7 hPa 0,0 l/m 0 min 0 min 0 W/m 0,0 km/h (0 Bft) 95,74 %
24.10.2020 05:40 11,1 C 10,6 C 10,6 C 99 % 1012,7 hPa 0,0 l/m 0 min 0 min 0 W/m 0,0 km/h (0 Bft) 95,74 %
24.10.2020 05:38 11,1 C 10,6 C 10,6 C 99 % 1012,7 hPa 0,0 l/m 0 min 0 min 0 W/m 0,0 km/h (0 Bft) 95,74 %
24.10.2020 05:36 11,1 C 10,6 C 10,6 C 99 % 1012,7 hPa 0,0 l/m 0 min 0 min 0 W/m 0,0 km/h (0 Bft) 95,65 %
24.10.2020 05:34 11,1 C 10,6 C 10,6 C 99 % 1012,7 hPa 0,0 l/m 0 min 0 min 0 W/m 0,0 km/h (0 Bft) 95,74 %
24.10.2020 05:32 11,1 C 10,6 C 10,6 C 99 % 1012,6 hPa 0,0 l/m 0 min 0 min 0 W/m 0,0 km/h (0 Bft) 95,74 %
24.10.2020 05:30 11,1 C 10,6 C 10,6 C 99 % 1012,7 hPa 0,0 l/m 0 min 0 min 0 W/m 3,2 km/h (1 Bft) 95,74 %
24.10.2020 05:28 11,1 C 10,6 C 10,6 C 99 % 1012,6 hPa 0,0 l/m 0 min 0 min 0 W/m 3,2 km/h (1 Bft) 97,87 %
24.10.2020 05:26 11,0 C 10,0 C 10,6 C 99 % 1012,6 hPa 0,0 l/m 0 min 0 min 0 W/m 0,0 km/h (0 Bft) 95,74 %
24.10.2020 05:24 11,0 C 10,6 C 10,6 C 99 % 1012,6 hPa 0,0 l/m 0 min 0 min 0 W/m 0,0 km/h (0 Bft) 95,65 %
24.10.2020 05:22 11,0 C 10,6 C 10,6 C 99 % 1012,6 hPa 0,0 l/m 0 min 0 min 0 W/m 6,4 km/h (2 Bft) 97,87 %
24.10.2020 05:20 11,0 C 10,6 C 10,0 C 99 % 1012,6 hPa 0,0 l/m 0 min 0 min 0 W/m 12,9 km/h (3 Bft) 97,87 %
24.10.2020 05:18 11,0 C 10,0 C 10,0 C 99 % 1012,6 hPa 0,0 l/m 0 min 0 min 0 W/m 9,7 km/h (2 Bft) 97,87 %
24.10.2020 05:16 11,0 C 10,0 C 10,0 C 99 % 1012,5 hPa 0,0 l/m 0 min 0 min 0 W/m 0,0 km/h (0 Bft) 95,74 %
24.10.2020 05:14 11,0 C 10,0 C 10,0 C 99 % 1012,5 hPa 0,0 l/m 0 min 0 min 0 W/m 0,0 km/h (0 Bft) 97,87 %
24.10.2020 05:12 11,0 C 10,0 C 10,0 C 99 % 1012,5 hPa 0,0 l/m 0 min 0 min 0 W/m 0,0 km/h (0 Bft) 97,83 %
24.10.2020 05:10 11,0 C 10,0 C 10,0 C 99 % 1012,5 hPa 0,0 l/m 0 min 0 min 0 W/m 0,0 km/h (0 Bft) 97,87 %
24.10.2020 05:08 11,0 C 10,0 C 10,0 C 99 % 1012,6 hPa 0,0 l/m 0 min 0 min 0 W/m 0,0 km/h (0 Bft) 97,87 %
24.10.2020 05:06 11,0 C 10,0 C 10,0 C 99 % 1012,6 hPa 0,0 l/m 0 min 0 min 0 W/m 0,0 km/h (0 Bft) 97,87 %
24.10.2020 05:04 11,0 C 10,0 C 10,0 C 99 % 1012,6 hPa 0,0 l/m 0 min 0 min 0 W/m 0,0 km/h (0 Bft) 95,74 %
24.10.2020 05:02 11,1 C 10,0 C 10,0 C 99 % 1012,6 hPa 0,0 l/m 0 min 0 min 0 W/m 0,0 km/h (0 Bft) 95,74 %
24.10.2020 05:00 11,1 C 10,0 C 10,0 C 99 % 1012,6 hPa 0,0 l/m 0 min 0 min 0 W/m 0,0 km/h (0 Bft) 97,83 %
24.10.2020 04:58 11,1 C 10,0 C 10,0 C 99 % 1012,6 hPa 0,0 l/m 0 min 0 min 0 W/m 3,2 km/h (1 Bft) 97,87 %
24.10.2020 04:56 11,1 C 10,0 C 10,0 C 99 % 1012,6 hPa 0,0 l/m 0 min 0 min 0 W/m 0,0 km/h (0 Bft) 95,74 %
24.10.2020 04:54 11,1 C 10,0 C 10,0 C 99 % 1012,6 hPa 0,0 l/m 0 min 0 min 0 W/m 3,2 km/h (1 Bft) 97,87 %
24.10.2020 04:52 11,1 C 10,0 C 10,0 C 99 % 1012,6 hPa 0,0 l/m 0 min 0 min 0 W/m 0,0 km/h (0 Bft) 95,74 %
24.10.2020 04:50 11,1 C 10,0 C 10,0 C 99 % 1012,6 hPa 0,0 l/m 0 min 0 min 0 W/m 0,0 km/h (0 Bft) 97,87 %
24.10.2020 04:48 11,1 C 10,0 C 10,0 C 99 % 1012,7 hPa 0,0 l/m 0 min 0 min 0 W/m 0,0 km/h (0 Bft) 95,65 %
24.10.2020 04:46 11,1 C 10,0 C 10,0 C 99 % 1012,6 hPa 0,0 l/m 0 min 0 min 0 W/m 3,2 km/h (1 Bft) 97,87 %
24.10.2020 04:44 11,1 C 10,0 C 10,0 C 99 % 1012,7 hPa 0,0 l/m 0 min 0 min 0 W/m 3,2 km/h (1 Bft) 97,87 %
24.10.2020 04:42 11,1 C 10,0 C 10,0 C 99 % 1012,6 hPa 0,0 l/m 0 min 0 min 0 W/m 0,0 km/h (0 Bft) 97,87 %
24.10.2020 04:40 11,1 C 10,0 C 10,0 C 99 % 1012,6 hPa 0,0 l/m 0 min 0 min 0 W/m 0,0 km/h (0 Bft) 97,87 %
24.10.2020 04:38 11,1 C 10,0 C 10,0 C 99 % 1012,6 hPa 0,0 l/m 0 min 0 min 0 W/m 0,0 km/h (0 Bft) 97,14 %
24.10.2020 04:36 11,1 C 10,0 C 10,0 C 99 % 1012,6 hPa 0,0 l/m 0 min 0 min 0 W/m 0,0 km/h (0 Bft) 96,15 %
24.10.2020 04:34 11,2 C 10,0 C 10,0 C 99 % 1012,6 hPa 0,0 l/m 0 min 0 min 0 W/m 0,0 km/h (0 Bft) 95,74 %
24.10.2020 04:32 11,2 C 10,0 C 10,0 C 99 % 1012,6 hPa 0,0 l/m 0 min 0 min 0 W/m 0,0 km/h (0 Bft) 95,74 %
24.10.2020 04:30 11,2 C 10,0 C 10,0 C 99 % 1012,6 hPa 0,0 l/m 0 min 0 min 0 W/m 0,0 km/h (0 Bft) 95,65 %
24.10.2020 04:28 11,2 C 10,0 C 10,0 C 99 % 1012,7 hPa 0,0 l/m 0 min 0 min 0 W/m 0,0 km/h (0 Bft) 93,62 %
24.10.2020 04:26 11,3 C 10,0 C 10,0 C 99 % 1012,7 hPa 0,0 l/m 0 min 0 min 0 W/m 0,0 km/h (0 Bft) 95,74 %
24.10.2020 04:24 11,3 C 10,0 C 10,0 C 99 % 1012,7 hPa 0,0 l/m 0 min 0 min 0 W/m 0,0 km/h (0 Bft) 95,74 %
24.10.2020 04:22 11,3 C 10,0 C 10,0 C 99 % 1012,7 hPa 0,0 l/m 0 min 0 min 0 W/m 0,0 km/h (0 Bft) 94,34 %
24.10.2020 04:20 11,3 C 10,0 C 10,0 C 99 % 1012,7 hPa 0,0 l/m 0 min 0 min 0 W/m 0,0 km/h (0 Bft) 95,74 %
24.10.2020 04:18 11,3 C 10,0 C 10,0 C 99 % 1012,7 hPa 0,0 l/m 0 min 0 min 0 W/m 3,2 km/h (1 Bft) 95,74 %
24.10.2020 04:16 11,3 C 10,0 C 10,0 C 99 % 1012,7 hPa 0,0 l/m 0 min 0 min 0 W/m 0,0 km/h (0 Bft) 95,74 %
24.10.2020 04:14 11,3 C 10,0 C 10,0 C 99 % 1012,7 hPa 0,0 l/m 0 min 0 min 0 W/m 0,0 km/h (0 Bft) 93,48 %
24.10.2020 04:12 11,3 C 10,0 C 10,0 C 99 % 1012,7 hPa 0,0 l/m 0 min 0 min 0 W/m 0,0 km/h (0 Bft) 91,49 %
24.10.2020 04:10 11,3 C 10,0 C 10,6 C 99 % 1012,7 hPa 0,0 l/m 0 min 0 min 0 W/m 3,2 km/h (1 Bft) 95,74 %
24.10.2020 04:08 11,3 C 10,0 C 10,6 C 99 % 1012,7 hPa 0,0 l/m 0 min 0 min 0 W/m 0,0 km/h (0 Bft) 97,87 %
24.10.2020 04:06 11,4 C 10,6 C 10,6 C 99 % 1012,7 hPa 0,0 l/m 0 min 0 min 0 W/m 0,0 km/h (0 Bft) 97,87 %
24.10.2020 04:04 11,4 C 10,0 C 10,6 C 99 % 1012,6 hPa 0,0 l/m 0 min 0 min 0 W/m 0,0 km/h (0 Bft) 97,87 %
24.10.2020 04:02 11,4 C 10,6 C 10,6 C 99 % 1012,7 hPa 0,0 l/m 0 min 0 min 0 W/m 0,0 km/h (0 Bft) 96,00 %
24.10.2020 04:00 11,4 C 10,6 C 10,6 C 99 % 1012,7 hPa 0,0 l/m 0 min 0 min 0 W/m 0,0 km/h (0 Bft) 97,87 %
24.10.2020 03:58 11,4 C 10,6 C 10,6 C 99 % 1012,6 hPa 0,0 l/m 0 min 0 min 0 W/m 0,0 km/h (0 Bft) 95,74 %
24.10.2020 03:56 11,4 C 10,6 C 10,6 C 99 % 1012,6 hPa 0,0 l/m 0 min 0 min 0 W/m 0,0 km/h (0 Bft) 97,87 %
24.10.2020 03:54 11,4 C 10,6 C 10,6 C 99 % 1012,6 hPa 0,0 l/m 0 min 0 min 0 W/m 0,0 km/h (0 Bft) 97,87 %
24.10.2020 03:52 11,4 C 10,6 C 10,6 C 99 % 1012,6 hPa 0,0 l/m 0 min 0 min 0 W/m 0,0 km/h (0 Bft) 95,74 %
24.10.2020 03:50 11,4 C 10,6 C 10,6 C 99 % 1012,6 hPa 0,0 l/m 0 min 0 min 0 W/m 0,0 km/h (0 Bft) 97,87 %
24.10.2020 03:48 11,4 C 10,6 C 10,6 C 99 % 1012,6 hPa 0,0 l/m 0 min 0 min 0 W/m 0,0 km/h (0 Bft) 100,00 %
24.10.2020 03:46 11,4 C 10,6 C 10,6 C 99 % 1012,7 hPa 0,0 l/m 0 min 0 min 0 W/m 3,2 km/h (1 Bft) 100,00 %
24.10.2020 03:44 11,4 C 10,6 C 10,6 C 99 % 1012,7 hPa 0,0 l/m 0 min 0 min 0 W/m 3,2 km/h (1 Bft) 100,00 %
24.10.2020 03:42 11,4 C 10,6 C 10,6 C 99 % 1012,7 hPa 0,0 l/m 0 min 0 min 0 W/m 6,4 km/h (2 Bft) 100,00 %
24.10.2020 03:40 11,4 C 10,6 C 10,6 C 99 % 1012,7 hPa 0,0 l/m 0 min 0 min 0 W/m 6,4 km/h (2 Bft) 100,00 %
24.10.2020 03:38 11,4 C 10,6 C 10,6 C 99 % 1012,7 hPa 0,0 l/m 0 min 0 min 0 W/m 0,0 km/h (0 Bft) 95,74 %
24.10.2020 03:36 11,4 C 10,6 C 10,6 C 99 % 1012,8 hPa 0,0 l/m 0 min 0 min 0 W/m 0,0 km/h (0 Bft) 97,87 %
24.10.2020 03:34 11,4 C 10,6 C 10,6 C 99 % 1012,8 hPa 0,0 l/m 0 min 0 min 0 W/m 0,0 km/h (0 Bft) 97,73 %
24.10.2020 03:32 11,4 C 10,6 C 10,6 C 99 % 1012,8 hPa 0,0 l/m 0 min 0 min 0 W/m 0,0 km/h (0 Bft) 97,87 %
24.10.2020 03:30 11,4 C 10,6 C 10,6 C 99 % 1012,8 hPa 0,0 l/m 0 min 0 min 0 W/m 3,2 km/h (1 Bft) 95,65 %
24.10.2020 03:28 11,4 C 10,6 C 10,6 C 99 % 1012,8 hPa 0,0 l/m 0 min 0 min 0 W/m 0,0 km/h (0 Bft) 97,87 %
24.10.2020 03:26 11,4 C 10,6 C 10,6 C 99 % 1012,8 hPa 0,0 l/m 0 min 0 min 0 W/m 0,0 km/h (0 Bft) 97,87 %
24.10.2020 03:24 11,4 C 10,6 C 10,6 C 99 % 1012,7 hPa 0,0 l/m 0 min 0 min 0 W/m 0,0 km/h (0 Bft) 95,74 %
24.10.2020 03:22 11,4 C 10,6 C 10,6 C 99 % 1012,8 hPa 0,0 l/m 0 min 0 min 0 W/m 12,9 km/h (3 Bft) 97,87 %
24.10.2020 03:20 11,4 C 10,6 C 10,6 C 99 % 1012,7 hPa 0,0 l/m 0 min 0 min 0 W/m 0,0 km/h (0 Bft) 97,87 %
24.10.2020 03:18 11,4 C 10,6 C 10,6 C 99 % 1012,8 hPa 0,0 l/m 0 min 0 min 0 W/m 3,2 km/h (1 Bft) 97,83 %
24.10.2020 03:16 11,4 C 10,6 C 10,6 C 99 % 1012,8 hPa 0,0 l/m 0 min 0 min 0 W/m 0,0 km/h (0 Bft) 95,74 %
24.10.2020 03:14 11,4 C 10,6 C 10,6 C 99 % 1012,8 hPa 0,0 l/m 0 min 0 min 0 W/m 3,2 km/h (1 Bft) 97,87 %
24.10.2020 03:12 11,5 C 10,6 C 10,6 C 99 % 1012,8 hPa 0,0 l/m 0 min 0 min 0 W/m 0,0 km/h (0 Bft) 97,87 %
24.10.2020 03:10 11,5 C 10,6 C 10,6 C 99 % 1012,8 hPa 0,0 l/m 0 min 0 min 0 W/m 0,0 km/h (0 Bft) 96,00 %
24.10.2020 03:08 11,5 C 10,0 C 10,6 C 99 % 1012,8 hPa 0,0 l/m 0 min 0 min 0 W/m 0,0 km/h (0 Bft) 96,30 %
24.10.2020 03:06 11,5 C 10,6 C 10,6 C 99 % 1012,8 hPa 0,0 l/m 0 min 0 min 0 W/m 0,0 km/h (0 Bft) 97,87 %
24.10.2020 03:04 11,5 C 10,0 C 10,6 C 99 % 1012,8 hPa 0,0 l/m 0 min 0 min 0 W/m 0,0 km/h (0 Bft) 97,83 %
24.10.2020 03:02 11,6 C 10,0 C 10,6 C 99 % 1012,8 hPa 0,0 l/m 0 min 0 min 0 W/m 0,0 km/h (0 Bft) 97,87 %
24.10.2020 03:00 11,6 C 10,0 C 10,0 C 99 % 1012,7 hPa 0,0 l/m 0 min 0 min 0 W/m 0,0 km/h (0 Bft) 97,87 %
24.10.2020 02:58 11,6 C 10,6 C 10,6 C 99 % 1012,7 hPa 0,0 l/m 0 min 0 min 0 W/m 0,0 km/h (0 Bft) 97,87 %
24.10.2020 02:56 11,6 C 10,6 C 10,6 C 99 % 1012,8 hPa 0,0 l/m 0 min 0 min 0 W/m 0,0 km/h (0 Bft) 97,87 %
24.10.2020 02:54 11,7 C 10,6 C 10,6 C 99 % 1012,7 hPa 0,0 l/m 0 min 0 min 0 W/m 0,0 km/h (0 Bft) 95,74 %
24.10.2020 02:52 11,7 C 10,6 C 10,6 C 99 % 1012,7 hPa 0,0 l/m 0 min 0 min 0 W/m 0,0 km/h (0 Bft) 100,00 %
24.10.2020 02:50 11,7 C 10,6 C 10,6 C 99 % 1012,7 hPa 0,0 l/m 0 min 0 min 0 W/m 0,0 km/h (0 Bft) 100,00 %
24.10.2020 02:48 11,8 C 10,6 C 10,6 C 99 % 1012,7 hPa 0,0 l/m 0 min 0 min 0 W/m 0,0 km/h (0 Bft) 95,74 %
24.10.2020 02:46 11,8 C 10,6 C 10,6 C 99 % 1012,6 hPa 0,0 l/m 0 min 0 min 0 W/m 0,0 km/h (0 Bft) 97,87 %
24.10.2020 02:44 11,8 C 10,6 C 10,6 C 99 % 1012,6 hPa 0,0 l/m 0 min 0 min 0 W/m 0,0 km/h (0 Bft) 100,00 %
24.10.2020 02:42 11,8 C 10,6 C 10,6 C 99 % 1012,6 hPa 0,0 l/m 0 min 0 min 0 W/m 3,2 km/h (1 Bft) 100,00 %
24.10.2020 02:40 11,8 C 10,6 C 10,6 C 99 % 1012,6 hPa 0,0 l/m 0 min 0 min 0 W/m 3,2 km/h (1 Bft) 100,00 %
24.10.2020 02:38 11,8 C 10,6 C 10,6 C 99 % 1012,6 hPa 0,0 l/m 0 min 0 min 0 W/m 0,0 km/h (0 Bft) 100,00 %
24.10.2020 02:36 11,9 C 10,6 C 10,6 C 99 % 1012,6 hPa 0,0 l/m 0 min 0 min 0 W/m 3,2 km/h (1 Bft) 97,87 %
24.10.2020 02:34 11,9 C 10,6 C 10,6 C 99 % 1012,6 hPa 0,0 l/m 0 min 0 min 0 W/m 0,0 km/h (0 Bft) 100,00 %
24.10.2020 02:32 11,9 C 10,6 C 10,6 C 99 % 1012,6 hPa 0,0 l/m 0 min 0 min 0 W/m 3,2 km/h (1 Bft) 100,00 %
24.10.2020 02:30 11,9 C 10,6 C 10,6 C 99 % 1012,6 hPa 0,0 l/m 0 min 0 min 0 W/m 0,0 km/h (0 Bft) 97,87 %
24.10.2020 02:28 11,9 C 11,1 C 10,6 C 99 % 1012,5 hPa 0,0 l/m 0 min 0 min 0 W/m 6,4 km/h (2 Bft) 97,83 %
24.10.2020 02:26 11,9 C 11,1 C 10,6 C 99 % 1012,5 hPa 0,0 l/m 0 min 0 min 0 W/m 3,2 km/h (1 Bft) 97,87 %
24.10.2020 02:24 11,9 C 11,1 C 11,1 C 99 % 1012,5 hPa 0,0 l/m 0 min 0 min 0 W/m 12,9 km/h (3 Bft) 97,87 %
24.10.2020 02:22 11,9 C 11,1 C 11,1 C 99 % 1012,5 hPa 0,0 l/m 0 min 0 min 0 W/m 12,9 km/h (3 Bft) 100,00 %
24.10.2020 02:20 11,9 C 11,1 C 11,1 C 99 % 1012,6 hPa 0,0 l/m 0 min 0 min 0 W/m 0,0 km/h (0 Bft) 100,00 %
24.10.2020 02:18 11,9 C 10,6 C 11,1 C 99 % 1012,6 hPa 0,0 l/m 0 min 0 min 0 W/m 0,0 km/h (0 Bft) 97,83 %
24.10.2020 02:16 11,9 C 11,1 C 11,1 C 99 % 1012,6 hPa 0,0 l/m 0 min 0 min 0 W/m 0,0 km/h (0 Bft) 100,00 %
24.10.2020 02:14 12,0 C 11,1 C 11,1 C 99 % 1012,6 hPa 0,0 l/m 0 min 0 min 0 W/m 0,0 km/h (0 Bft) 97,87 %
24.10.2020 02:12 12,0 C 11,1 C 11,1 C 99 % 1012,6 hPa 0,0 l/m 0 min 0 min 0 W/m 0,0 km/h (0 Bft) 100,00 %
24.10.2020 02:10 12,0 C 11,1 C 11,1 C 99 % 1012,6 hPa 0,0 l/m 0 min 0 min 0 W/m 0,0 km/h (0 Bft) 100,00 %
24.10.2020 02:08 12,0 C 11,1 C 11,1 C 99 % 1012,6 hPa 0,0 l/m 0 min 0 min 0 W/m 12,9 km/h (3 Bft) 100,00 %
24.10.2020 02:06 12,0 C 11,1 C 11,1 C 99 % 1012,6 hPa 0,0 l/m 0 min 0 min 0 W/m 0,0 km/h (0 Bft) 100,00 %
24.10.2020 02:04 12,0 C 11,1 C 11,1 C 99 % 1012,6 hPa 0,0 l/m 0 min 0 min 0 W/m 0,0 km/h (0 Bft) 100,00 %
24.10.2020 02:02 12,0 C 11,1 C 11,1 C 99 % 1012,6 hPa 0,0 l/m 0 min 0 min 0 W/m 3,2 km/h (1 Bft) 100,00 %
24.10.2020 02:00 12,0 C 11,1 C 11,1 C 99 % 1012,6 hPa 0,0 l/m 0 min 0 min 0 W/m 0,0 km/h (0 Bft) 100,00 %
24.10.2020 01:58 12,0 C 11,1 C 11,1 C 99 % 1012,6 hPa 0,0 l/m 0 min 0 min 0 W/m 3,2 km/h (1 Bft) 100,00 %
24.10.2020 01:56 12,0 C 11,1 C 11,1 C 99 % 1012,6 hPa 0,0 l/m 0 min 0 min 0 W/m 0,0 km/h (0 Bft) 93,62 %
24.10.2020 01:54 12,0 C 11,1 C 11,1 C 99 % 1012,6 hPa 0,0 l/m 0 min 0 min 0 W/m 3,2 km/h (1 Bft) 100,00 %
24.10.2020 01:52 12,1 C 11,1 C 11,1 C 99 % 1012,7 hPa 0,0 l/m 0 min 0 min 0 W/m 0,0 km/h (0 Bft) 97,87 %
24.10.2020 01:50 12,1 C 11,1 C 11,1 C 99 % 1012,6 hPa 0,0 l/m 0 min 0 min 0 W/m 0,0 km/h (0 Bft) 100,00 %
24.10.2020 01:48 12,1 C 11,1 C 11,1 C 99 % 1012,6 hPa 0,0 l/m 0 min 0 min 0 W/m 0,0 km/h (0 Bft) 97,87 %
24.10.2020 01:46 12,1 C 11,1 C 11,1 C 99 % 1012,6 hPa 0,0 l/m 0 min 0 min 0 W/m 0,0 km/h (0 Bft) 97,87 %
24.10.2020 01:44 12,1 C 11,1 C 11,1 C 99 % 1012,7 hPa 0,0 l/m 0 min 0 min 0 W/m 0,0 km/h (0 Bft) 97,87 %
24.10.2020 01:42 12,1 C 11,1 C 11,1 C 99 % 1012,6 hPa 0,2 l/m 0 min 0 min 0 W/m 0,0 km/h (0 Bft) 97,83 %
24.10.2020 01:40 12,1 C 11,1 C 11,1 C 99 % 1012,6 hPa 0,0 l/m 0 min 0 min 0 W/m 0,0 km/h (0 Bft) 97,87 %
24.10.2020 01:38 12,1 C 11,1 C 11,1 C 99 % 1012,6 hPa 0,0 l/m 0 min 0 min 0 W/m 0,0 km/h (0 Bft) 95,74 %
24.10.2020 01:36 12,2 C 11,1 C 11,1 C 99 % 1012,6 hPa 0,0 l/m 0 min 0 min 0 W/m 0,0 km/h (0 Bft) 93,62 %
24.10.2020 01:34 12,2 C 11,1 C 11,1 C 99 % 1012,5 hPa 0,0 l/m 0 min 0 min 0 W/m 6,4 km/h (2 Bft) 95,74 %
24.10.2020 01:32 12,2 C 11,1 C 11,1 C 99 % 1012,6 hPa 0,0 l/m 0 min 0 min 0 W/m 3,2 km/h (1 Bft) 97,87 %
24.10.2020 01:30 12,2 C 11,1 C 11,1 C 99 % 1012,6 hPa 0,0 l/m 0 min 0 min 0 W/m 3,2 km/h (1 Bft) 97,83 %
24.10.2020 01:28 12,3 C 11,1 C 11,1 C 99 % 1012,5 hPa 0,0 l/m 0 min 0 min 0 W/m 0,0 km/h (0 Bft) 97,87 %
24.10.2020 01:26 12,3 C 11,1 C 11,1 C 99 % 1012,5 hPa 0,0 l/m 0 min 0 min 0 W/m 0,0 km/h (0 Bft) 97,87 %
24.10.2020 01:24 12,3 C 11,1 C 11,1 C 99 % 1012,5 hPa 0,0 l/m 0 min 0 min 0 W/m 3,2 km/h (1 Bft) 97,87 %
24.10.2020 01:22 12,3 C 11,1 C 11,1 C 99 % 1012,5 hPa 0,0 l/m 0 min 0 min 0 W/m 0,0 km/h (0 Bft) 97,87 %
24.10.2020 01:20 12,4 C 11,1 C 11,1 C 99 % 1012,5 hPa 0,0 l/m 0 min 0 min 0 W/m 0,0 km/h (0 Bft) 95,65 %
24.10.2020 01:18 12,4 C 11,1 C 11,1 C 99 % 1012,5 hPa 0,0 l/m 0 min 0 min 0 W/m 0,0 km/h (0 Bft) 97,87 %
24.10.2020 01:16 12,4 C 11,1 C 11,1 C 99 % 1012,5 hPa 0,0 l/m 0 min 0 min 0 W/m 0,0 km/h (0 Bft) 95,74 %
24.10.2020 01:14 12,4 C 11,1 C 11,1 C 99 % 1012,5 hPa 0,0 l/m 0 min 0 min 0 W/m 0,0 km/h (0 Bft) 97,87 %
24.10.2020 01:12 12,4 C 11,1 C 11,1 C 99 % 1012,5 hPa 0,0 l/m 0 min 0 min 0 W/m 0,0 km/h (0 Bft) 97,87 %
24.10.2020 01:10 12,5 C 11,1 C 11,1 C 99 % 1012,5 hPa 0,0 l/m 0 min 0 min 0 W/m 0,0 km/h (0 Bft) 97,30 %
24.10.2020 01:08 12,5 C 11,1 C 11,1 C 99 % 1012,5 hPa 0,0 l/m 0 min 0 min 0 W/m 0,0 km/h (0 Bft) 97,87 %
24.10.2020 01:06 12,5 C 11,1 C 11,7 C 99 % 1012,5 hPa 0,0 l/m 0 min 0 min 0 W/m 0,0 km/h (0 Bft) 97,87 %
24.10.2020 01:04 12,5 C 11,1 C 11,7 C 99 % 1012,5 hPa 0,0 l/m 0 min 0 min 0 W/m 0,0 km/h (0 Bft) 97,87 %
24.10.2020 01:02 12,5 C 11,1 C 11,1 C 99 % 1012,6 hPa 0,0 l/m 0 min 0 min 0 W/m 3,2 km/h (1 Bft) 97,87 %
24.10.2020 01:00 12,6 C 11,7 C 11,7 C 99 % 1012,6 hPa 0,0 l/m 0 min 0 min 0 W/m 0,0 km/h (0 Bft) 95,65 %
24.10.2020 00:58 12,6 C 11,7 C 11,7 C 99 % 1012,5 hPa 0,0 l/m 0 min 0 min 0 W/m 0,0 km/h (0 Bft) 97,87 %
24.10.2020 00:56 12,6 C 11,7 C 11,7 C 99 % 1012,5 hPa 0,0 l/m 0 min 0 min 0 W/m 3,2 km/h (1 Bft) 97,87 %
24.10.2020 00:54 12,6 C 11,7 C 11,7 C 99 % 1012,6 hPa 0,0 l/m 0 min 0 min 0 W/m 3,2 km/h (1 Bft) 97,87 %
24.10.2020 00:52 12,6 C 11,7 C 11,7 C 99 % 1012,6 hPa 0,0 l/m 0 min 0 min 0 W/m 0,0 km/h (0 Bft) 95,74 %
24.10.2020 00:50 12,7 C 11,7 C 11,7 C 99 % 1012,6 hPa 0,0 l/m 0 min 0 min 0 W/m 3,2 km/h (1 Bft) 97,87 %
24.10.2020 00:48 12,7 C 11,7 C 11,7 C 99 % 1012,6 hPa 0,0 l/m 0 min 0 min 0 W/m 0,0 km/h (0 Bft) 97,83 %
24.10.2020 00:46 12,7 C 11,7 C 11,7 C 99 % 1012,5 hPa 0,0 l/m 0 min 0 min 0 W/m 3,2 km/h (1 Bft) 97,87 %
24.10.2020 00:44 12,8 C 11,7 C 11,7 C 99 % 1012,5 hPa 0,0 l/m 0 min 0 min 0 W/m 0,0 km/h (0 Bft) 97,87 %
24.10.2020 00:42 12,8 C 11,7 C 11,7 C 99 % 1012,5 hPa 0,0 l/m 0 min 0 min 0 W/m 3,2 km/h (1 Bft) 97,87 %
24.10.2020 00:40 12,8 C 11,7 C 11,7 C 99 % 1012,6 hPa 0,0 l/m 0 min 0 min 0 W/m 0,0 km/h (0 Bft) 98,00 %
24.10.2020 00:38 12,8 C 11,7 C 11,7 C 99 % 1012,5 hPa 0,0 l/m 0 min 0 min 0 W/m 0,0 km/h (0 Bft) 97,87 %
24.10.2020 00:36 12,8 C 11,7 C 11,7 C 99 % 1012,5 hPa 0,0 l/m 0 min 0 min 0 W/m 0,0 km/h (0 Bft) 97,83 %
24.10.2020 00:34 12,8 C 11,7 C 11,7 C 99 % 1012,6 hPa 0,0 l/m 0 min 0 min 0 W/m 0,0 km/h (0 Bft) 97,87 %
24.10.2020 00:32 12,8 C 11,7 C 11,7 C 99 % 1012,6 hPa 0,0 l/m 0 min 0 min 0 W/m 0,0 km/h (0 Bft) 97,87 %
24.10.2020 00:30 12,8 C 11,7 C 11,7 C 99 % 1012,6 hPa 0,0 l/m 0 min 0 min 0 W/m 0,0 km/h (0 Bft) 98,11 %
24.10.2020 00:28 12,8 C 11,7 C 11,7 C 99 % 1012,6 hPa 0,0 l/m 0 min 0 min 0 W/m 3,2 km/h (1 Bft) 95,74 %
24.10.2020 00:26 12,8 C 11,7 C 11,7 C 99 % 1012,6 hPa 0,0 l/m 0 min 0 min 0 W/m 0,0 km/h (0 Bft) 95,74 %
24.10.2020 00:24 12,8 C 11,7 C 11,7 C 99 % 1012,6 hPa 0,0 l/m 0 min 0 min 0 W/m 3,2 km/h (1 Bft) 97,87 %
24.10.2020 00:22 12,8 C 11,7 C 11,7 C 99 % 1012,6 hPa 0,0 l/m 0 min 2 min 0 W/m 0,0 km/h (0 Bft) 97,87 %
24.10.2020 00:20 12,8 C 11,7 C 11,7 C 99 % 1012,6 hPa 0,0 l/m 0 min 2 min 0 W/m 0,0 km/h (0 Bft) 95,65 %
24.10.2020 00:18 12,8 C 11,7 C 11,7 C 99 % 1012,6 hPa 0,0 l/m 0 min 0 min 0 W/m 0,0 km/h (0 Bft) 95,74 %
24.10.2020 00:16 12,8 C 11,7 C 11,7 C 99 % 1012,6 hPa 0,0 l/m 0 min 0 min 0 W/m 6,4 km/h (2 Bft) 97,87 %
24.10.2020 00:14 12,8 C 11,7 C 11,7 C 99 % 1012,6 hPa 0,0 l/m 0 min 2 min 0 W/m 3,2 km/h (1 Bft) 97,87 %
24.10.2020 00:12 12,8 C 11,7 C 11,7 C 99 % 1012,7 hPa 0,0 l/m 0 min 2 min 0 W/m 0,0 km/h (0 Bft) 100,00 %
24.10.2020 00:10 12,8 C 11,7 C 11,7 C 99 % 1012,6 hPa 0,2 l/m 0 min 2 min 0 W/m 6,4 km/h (2 Bft) 97,83 %
24.10.2020 00:08 12,7 C 11,7 C 11,7 C 99 % 1012,6 hPa 0,0 l/m 0 min 4 min 0 W/m 22,5 km/h (4 Bft) 98,94 %
24.10.2020 00:04 12,7 C 11,7 C 11,7 C 99 % 1012,6 hPa 0,2 l/m 0 min 2 min 0 W/m 6,4 km/h (2 Bft) 97,87 %
24.10.2020 00:02 12,6 C 12,2 C 11,7 C 99 % 1012,6 hPa 0,0 l/m 0 min 2 min 0 W/m 6,4 km/h (2 Bft) 94,44 %
24.10.2020 00:00 12,6 C 12,2 C 11,7 C 99 % 1012,5 hPa 0,0 l/m 0 min 0 min 0 W/m 6,4 km/h (2 Bft) 95,74 %
23.10.2020 23:58 12,6 C 12,2 C 11,7 C 99 % 1012,4 hPa 0,0 l/m 0 min 0 min 0 W/m 0,0 km/h (0 Bft) 95,65 %
23.10.2020 23:56 12,6 C 12,2 C 11,7 C 99 % 1012,4 hPa 0,0 l/m 0 min 0 min 0 W/m 3,2 km/h (1 Bft) 97,87 %
23.10.2020 23:54 12,6 C 12,2 C 11,7 C 99 % 1012,3 hPa 0,0 l/m 0 min 0 min 0 W/m 3,2 km/h (1 Bft) 97,87 %
23.10.2020 23:52 12,6 C 12,2 C 11,7 C 99 % 1012,3 hPa 0,0 l/m 0 min 0 min 0 W/m 0,0 km/h (0 Bft) 97,87 %
23.10.2020 23:50 12,6 C 12,2 C 11,7 C 99 % 1012,3 hPa 0,0 l/m 0 min 0 min 0 W/m 6,4 km/h (2 Bft) 97,87 %
23.10.2020 23:48 12,6 C 12,2 C 11,7 C 99 % 1012,4 hPa 0,0 l/m 0 min 0 min 0 W/m 3,2 km/h (1 Bft) 95,74 %
23.10.2020 23:46 12,6 C 12,2 C 11,7 C 99 % 1012,3 hPa 0,0 l/m 0 min 0 min 0 W/m 0,0 km/h (0 Bft) 95,65 %
23.10.2020 23:44 12,6 C 12,2 C 11,7 C 99 % 1012,3 hPa 0,0 l/m 0 min 0 min 0 W/m 0,0 km/h (0 Bft) 97,87 %
23.10.2020 23:42 12,6 C 12,2 C 11,7 C 99 % 1012,3 hPa 0,0 l/m 0 min 0 min 0 W/m 0,0 km/h (0 Bft) 97,87 %
23.10.2020 23:40 12,6 C 12,2 C 11,7 C 99 % 1012,3 hPa 0,0 l/m 0 min 0 min 0 W/m 0,0 km/h (0 Bft) 97,87 %
23.10.2020 23:38 12,6 C 12,2 C 11,7 C 99 % 1012,4 hPa 0,0 l/m 0 min 0 min 0 W/m 0,0 km/h (0 Bft) 97,87 %
23.10.2020 23:36 12,6 C 12,2 C 11,7 C 99 % 1012,3 hPa 0,0 l/m 0 min 0 min 0 W/m 3,2 km/h (1 Bft) 97,87 %
23.10.2020 23:34 12,6 C 12,2 C 11,7 C 99 % 1012,3 hPa 0,0 l/m 0 min 0 min 0 W/m 0,0 km/h (0 Bft) 97,83 %
23.10.2020 23:32 12,6 C 12,2 C 11,7 C 99 % 1012,3 hPa 0,0 l/m 0 min 0 min 0 W/m 0,0 km/h (0 Bft) 97,22 %
23.10.2020 23:30 12,5 C 12,2 C 11,7 C 99 % 1012,3 hPa 0,0 l/m 0 min 0 min 0 W/m 3,2 km/h (1 Bft) 93,62 %
23.10.2020 23:28 12,5 C 12,2 C 11,7 C 99 % 1012,3 hPa 0,0 l/m 0 min 0 min 0 W/m 6,4 km/h (2 Bft) 98,28 %
23.10.2020 23:26 12,5 C 12,2 C 11,7 C 99 % 1012,3 hPa 0,0 l/m 0 min 0 min 0 W/m 3,2 km/h (1 Bft) 97,87 %
23.10.2020 23:24 12,5 C 12,2 C 11,7 C 99 % 1012,3 hPa 0,0 l/m 0 min 0 min 0 W/m 6,4 km/h (2 Bft) 95,65 %
23.10.2020 23:22 12,5 C 12,2 C 11,7 C 99 % 1012,3 hPa 0,0 l/m 0 min 0 min 0 W/m 3,2 km/h (1 Bft) 97,87 %
23.10.2020 23:20 12,5 C 12,2 C 11,7 C 99 % 1012,3 hPa 0,0 l/m 0 min 0 min 0 W/m 3,2 km/h (1 Bft) 97,37 %
23.10.2020 23:18 12,5 C 12,2 C 11,7 C 99 % 1012,3 hPa 0,0 l/m 0 min 0 min 0 W/m 0,0 km/h (0 Bft) 97,87 %
23.10.2020 23:16 12,5 C 12,2 C 11,7 C 99 % 1012,2 hPa 0,0 l/m 0 min 0 min 0 W/m 0,0 km/h (0 Bft) 97,87 %
23.10.2020 23:14 12,5 C 12,2 C 11,7 C 99 % 1012,2 hPa 0,0 l/m 0 min 0 min 0 W/m 0,0 km/h (0 Bft) 97,83 %
23.10.2020 23:12 12,5 C 11,7 C 11,7 C 99 % 1012,1 hPa 0,0 l/m 0 min 0 min 0 W/m 3,2 km/h (1 Bft) 97,87 %
23.10.2020 23:10 12,5 C 11,7 C 11,7 C 99 % 1012,1 hPa 0,0 l/m 0 min 0 min 0 W/m 3,2 km/h (1 Bft) 98,00 %
23.10.2020 23:08 12,5 C 11,7 C 11,7 C 99 % 1012,1 hPa 0,0 l/m 0 min 0 min 0 W/m 3,2 km/h (1 Bft) 97,87 %
23.10.2020 23:06 12,5 C 11,7 C 11,7 C 99 % 1012,1 hPa 0,0 l/m 0 min 0 min 0 W/m 6,4 km/h (2 Bft) 95,74 %
23.10.2020 23:04 12,5 C 11,7 C 11,7 C 99 % 1012,1 hPa 0,0 l/m 0 min 0 min 0 W/m 0,0 km/h (0 Bft) 97,83 %
23.10.2020 23:02 12,5 C 11,7 C 11,7 C 98 % 1012,0 hPa 0,0 l/m 0 min 0 min 0 W/m 16,1 km/h (3 Bft) 96,30 %
23.10.2020 23:00 12,5 C 11,7 C 11,7 C 98 % 1012,0 hPa 0,0 l/m 0 min 0 min 0 W/m 3,2 km/h (1 Bft) 93,48 %
23.10.2020 22:58 12,5 C 12,2 C 11,7 C 98 % 1012,1 hPa 0,0 l/m 0 min 0 min 0 W/m 6,4 km/h (2 Bft) 93,62 %
23.10.2020 22:56 12,5 C 11,7 C 11,7 C 98 % 1012,1 hPa 0,0 l/m 0 min 0 min 0 W/m 16,1 km/h (3 Bft) 95,74 %
23.10.2020 22:54 12,5 C 11,7 C 11,7 C 98 % 1012,0 hPa 0,0 l/m 0 min 0 min 0 W/m 0,0 km/h (0 Bft) 95,74 %
23.10.2020 22:52 12,5 C 11,7 C 11,7 C 98 % 1011,9 hPa 0,0 l/m 0 min 0 min 0 W/m 3,2 km/h (1 Bft) 95,74 %
23.10.2020 22:50 12,5 C 11,7 C 11,7 C 98 % 1011,9 hPa 0,0 l/m 0 min 0 min 0 W/m 0,0 km/h (0 Bft) 95,74 %
23.10.2020 22:48 12,5 C 11,7 C 11,7 C 98 % 1011,9 hPa 0,0 l/m 0 min 0 min 0 W/m 3,2 km/h (1 Bft) 95,65 %
23.10.2020 22:46 12,5 C 11,7 C 11,1 C 98 % 1011,9 hPa 0,0 l/m 0 min 0 min 0 W/m 3,2 km/h (1 Bft) 95,74 %
23.10.2020 22:44 12,6 C 11,7 C 11,1 C 98 % 1011,8 hPa 0,0 l/m 0 min 0 min 0 W/m 3,2 km/h (1 Bft) 93,62 %
23.10.2020 22:42 12,6 C 11,7 C 11,7 C 98 % 1011,8 hPa 0,0 l/m 0 min 0 min 0 W/m 0,0 km/h (0 Bft) 95,74 %
23.10.2020 22:40 12,6 C 11,7 C 11,7 C 98 % 1011,8 hPa 0,0 l/m 0 min 0 min 0 W/m 0,0 km/h (0 Bft) 95,74 %
23.10.2020 22:38 12,6 C 11,7 C 11,7 C 98 % 1011,8 hPa 0,0 l/m 0 min 0 min 0 W/m 3,2 km/h (1 Bft) 95,74 %
23.10.2020 22:36 12,6 C 11,7 C 11,7 C 98 % 1011,8 hPa 0,0 l/m 0 min 0 min 0 W/m 0,0 km/h (0 Bft) 93,48 %
23.10.2020 22:34 12,6 C 11,7 C 11,7 C 98 % 1011,8 hPa 0,0 l/m 0 min 0 min 0 W/m 0,0 km/h (0 Bft) 95,74 %
23.10.2020 22:32 12,6 C 11,7 C 11,7 C 98 % 1011,8 hPa 0,0 l/m 0 min 0 min 0 W/m 3,2 km/h (1 Bft) 95,74 %
23.10.2020 22:30 12,6 C 11,7 C 11,7 C 98 % 1011,8 hPa 0,0 l/m 0 min 0 min 0 W/m 0,0 km/h (0 Bft) 95,74 %
23.10.2020 22:28 12,7 C 11,7 C 11,7 C 98 % 1011,7 hPa 0,0 l/m 0 min 0 min 0 W/m 0,0 km/h (0 Bft) 93,62 %
23.10.2020 22:26 12,7 C 11,7 C 11,7 C 98 % 1011,7 hPa 0,0 l/m 0 min 0 min 0 W/m 0,0 km/h (0 Bft) 92,50 %
23.10.2020 22:24 12,8 C 11,7 C 11,7 C 98 % 1011,7 hPa 0,0 l/m 0 min 0 min 0 W/m 0,0 km/h (0 Bft) 95,74 %
23.10.2020 22:22 12,8 C 11,7 C 11,7 C 98 % 1011,7 hPa 0,0 l/m 0 min 0 min 0 W/m 0,0 km/h (0 Bft) 95,74 %
23.10.2020 22:20 12,8 C 11,7 C 11,7 C 98 % 1011,7 hPa 0,0 l/m 0 min 0 min 0 W/m 0,0 km/h (0 Bft) 97,87 %
23.10.2020 22:18 12,8 C 11,7 C 11,7 C 98 % 1011,7 hPa 0,0 l/m 0 min 0 min 0 W/m 0,0 km/h (0 Bft) 97,87 %
23.10.2020 22:16 12,8 C 11,7 C 11,1 C 98 % 1011,7 hPa 0,0 l/m 0 min 0 min 0 W/m 0,0 km/h (0 Bft) 97,83 %
23.10.2020 22:14 12,9 C 11,7 C 11,1 C 98 % 1011,7 hPa 0,0 l/m 0 min 0 min 0 W/m 0,0 km/h (0 Bft) 97,87 %
23.10.2020 22:12 12,9 C 11,7 C 11,1 C 98 % 1011,6 hPa 0,0 l/m 0 min 0 min 0 W/m 0,0 km/h (0 Bft) 97,87 %
23.10.2020 22:10 12,9 C 11,7 C 11,7 C 98 % 1011,6 hPa 0,0 l/m 0 min 0 min 0 W/m 0,0 km/h (0 Bft) 96,23 %
23.10.2020 22:08 12,9 C 11,7 C 11,7 C 98 % 1011,6 hPa 0,0 l/m 0 min 0 min 0 W/m 0,0 km/h (0 Bft) 97,87 %
23.10.2020 22:06 12,9 C 11,7 C 11,7 C 98 % 1011,6 hPa 0,0 l/m 0 min 0 min 0 W/m 0,0 km/h (0 Bft) 97,87 %
23.10.2020 22:04 12,9 C 11,7 C 11,7 C 98 % 1011,6 hPa 0,0 l/m 0 min 0 min 0 W/m 0,0 km/h (0 Bft) 95,74 %
23.10.2020 22:02 13,0 C 11,7 C 11,7 C 98 % 1011,6 hPa 0,0 l/m 0 min 0 min 0 W/m 0,0 km/h (0 Bft) 95,65 %
23.10.2020 22:00 13,0 C 11,7 C 11,7 C 98 % 1011,5 hPa 0,0 l/m 0 min 0 min 0 W/m 0,0 km/h (0 Bft) 97,87 %
23.10.2020 21:58 13,0 C 11,7 C 11,7 C 98 % 1011,5 hPa 0,0 l/m 0 min 0 min 0 W/m 0,0 km/h (0 Bft) 95,74 %
23.10.2020 21:56 13,0 C 12,2 C 11,7 C 98 % 1011,5 hPa 0,0 l/m 0 min 0 min 0 W/m 0,0 km/h (0 Bft) 97,87 %
23.10.2020 21:54 13,0 C 12,2 C 11,7 C 98 % 1011,5 hPa 0,0 l/m 0 min 0 min 0 W/m 0,0 km/h (0 Bft) 95,74 %
23.10.2020 21:52 13,0 C 12,2 C 11,7 C 98 % 1011,5 hPa 0,0 l/m 0 min 0 min 0 W/m 0,0 km/h (0 Bft) 97,87 %
23.10.2020 21:50 13,1 C 12,2 C 11,7 C 98 % 1011,4 hPa 0,0 l/m 0 min 0 min 0 W/m 0,0 km/h (0 Bft) 97,83 %
23.10.2020 21:48 13,1 C 12,2 C 11,7 C 98 % 1011,4 hPa 0,0 l/m 0 min 0 min 0 W/m 6,4 km/h (2 Bft) 95,74 %
23.10.2020 21:46 13,1 C 12,2 C 11,7 C 98 % 1011,4 hPa 0,0 l/m 0 min 0 min 0 W/m 0,0 km/h (0 Bft) 95,74 %
23.10.2020 21:44 13,1 C 12,2 C 11,7 C 98 % 1011,3 hPa 0,0 l/m 0 min 0 min 0 W/m 0,0 km/h (0 Bft) 97,87 %
23.10.2020 21:42 13,1 C 12,2 C 11,7 C 98 % 1011,3 hPa 0,0 l/m 0 min 0 min 0 W/m 0,0 km/h (0 Bft) 97,87 %
23.10.2020 21:40 13,1 C 12,2 C 11,7 C 98 % 1011,3 hPa 0,0 l/m 0 min 0 min 0 W/m 0,0 km/h (0 Bft) 95,74 %
23.10.2020 21:38 13,1 C 12,2 C 11,7 C 98 % 1011,3 hPa 0,0 l/m 0 min 0 min 0 W/m 0,0 km/h (0 Bft) 97,83 %
23.10.2020 21:36 13,2 C 12,2 C 11,7 C 98 % 1011,2 hPa 0,0 l/m 0 min 0 min 0 W/m 6,4 km/h (2 Bft) 97,87 %
23.10.2020 21:34 13,2 C 12,2 C 11,7 C 98 % 1011,2 hPa 0,0 l/m 0 min 0 min 0 W/m 6,4 km/h (2 Bft) 97,87 %
23.10.2020 21:32 13,2 C 12,2 C 11,7 C 98 % 1011,2 hPa 0,0 l/m 0 min 0 min 0 W/m 3,2 km/h (1 Bft) 100,00 %
23.10.2020 21:30 13,2 C 12,2 C 11,7 C 98 % 1011,2 hPa 0,0 l/m 0 min 0 min 0 W/m 0,0 km/h (0 Bft) 100,00 %
23.10.2020 21:28 13,3 C 12,2 C 11,7 C 98 % 1011,2 hPa 0,0 l/m 0 min 0 min 0 W/m 0,0 km/h (0 Bft) 100,00 %
23.10.2020 21:26 13,3 C 12,2 C 11,7 C 98 % 1011,1 hPa 0,0 l/m 0 min 0 min 0 W/m 3,2 km/h (1 Bft) 97,83 %
23.10.2020 21:24 13,3 C 12,2 C 11,7 C 98 % 1011,1 hPa 0,0 l/m 0 min 0 min 0 W/m 0,0 km/h (0 Bft) 97,87 %
23.10.2020 21:22 13,3 C 12,2 C 11,7 C 98 % 1011,1 hPa 0,0 l/m 0 min 0 min 0 W/m 3,2 km/h (1 Bft) 100,00 %
23.10.2020 21:20 13,3 C 12,2 C 11,7 C 98 % 1011,0 hPa 0,0 l/m 0 min 0 min 0 W/m 0,0 km/h (0 Bft) 100,00 %
23.10.2020 21:18 13,3 C 12,2 C 11,7 C 98 % 1011,0 hPa 0,0 l/m 0 min 0 min 0 W/m 0,0 km/h (0 Bft) 100,00 %
23.10.2020 21:16 13,4 C 12,2 C 11,7 C 98 % 1011,0 hPa 0,0 l/m 0 min 0 min 0 W/m 0,0 km/h (0 Bft) 97,87 %
23.10.2020 21:14 13,4 C 12,2 C 11,7 C 98 % 1011,0 hPa 0,0 l/m 0 min 0 min 0 W/m 3,2 km/h (1 Bft) 97,83 %
23.10.2020 21:12 13,4 C 12,2 C 12,2 C 98 % 1011,0 hPa 0,0 l/m 0 min 0 min 0 W/m 0,0 km/h (0 Bft) 100,00 %
23.10.2020 21:10 13,4 C 12,2 C 12,2 C 98 % 1011,0 hPa 0,0 l/m 0 min 0 min 0 W/m 0,0 km/h (0 Bft) 100,00 %
23.10.2020 21:08 13,4 C 12,2 C 12,2 C 98 % 1011,0 hPa 0,0 l/m 0 min 0 min 0 W/m 0,0 km/h (0 Bft) 100,00 %
23.10.2020 21:06 13,4 C 12,2 C 12,2 C 98 % 1011,0 hPa 0,0 l/m 0 min 0 min 0 W/m 0,0 km/h (0 Bft) 97,87 %
23.10.2020 21:04 13,5 C 12,2 C 12,2 C 98 % 1011,0 hPa 0,0 l/m 0 min 0 min 0 W/m 0,0 km/h (0 Bft) 100,00 %
23.10.2020 21:02 13,5 C 12,2 C 12,2 C 98 % 1011,0 hPa 0,0 l/m 0 min 0 min 0 W/m 0,0 km/h (0 Bft) 97,87 %
23.10.2020 21:00 13,5 C 12,2 C 12,2 C 98 % 1011,0 hPa 0,0 l/m 0 min 0 min 0 W/m 0,0 km/h (0 Bft) 97,87 %
23.10.2020 20:58 13,5 C 12,2 C 12,2 C 98 % 1011,0 hPa 0,0 l/m 0 min 0 min 0 W/m 0,0 km/h (0 Bft) 100,00 %
23.10.2020 20:56 13,5 C 12,2 C 12,2 C 98 % 1011,0 hPa 0,0 l/m 0 min 0 min 0 W/m 0,0 km/h (0 Bft) 100,00 %
23.10.2020 20:54 13,5 C 12,2 C 12,2 C 98 % 1011,1 hPa 0,0 l/m 0 min 0 min 0 W/m 0,0 km/h (0 Bft) 100,00 %
23.10.2020 20:52 13,6 C 12,2 C 12,2 C 98 % 1011,1 hPa 0,0 l/m 0 min 0 min 0 W/m 0,0 km/h (0 Bft) 100,00 %
23.10.2020 20:50 13,6 C 12,8 C 12,2 C 98 % 1011,1 hPa 0,0 l/m 0 min 0 min 0 W/m 0,0 km/h (0 Bft) 100,00 %
23.10.2020 20:48 13,6 C 12,2 C 12,2 C 98 % 1011,2 hPa 0,0 l/m 0 min 0 min 0 W/m 0,0 km/h (0 Bft) 100,00 %
23.10.2020 20:46 13,6 C 12,8 C 12,2 C 98 % 1011,2 hPa 0,0 l/m 0 min 0 min 0 W/m 0,0 km/h (0 Bft) 100,00 %
23.10.2020 20:44 13,6 C 12,8 C 12,2 C 98 % 1011,2 hPa 0,0 l/m 0 min 0 min 0 W/m 0,0 km/h (0 Bft) 100,00 %
23.10.2020 20:42 13,6 C 12,8 C 12,2 C 98 % 1011,1 hPa 0,0 l/m 0 min 0 min 0 W/m 0,0 km/h (0 Bft) 100,00 %
23.10.2020 20:40 13,6 C 12,8 C 12,2 C 98 % 1011,1 hPa 0,0 l/m 0 min 0 min 0 W/m 0,0 km/h (0 Bft) 100,00 %
23.10.2020 20:38 13,7 C 12,8 C 12,2 C 98 % 1011,1 hPa 0,0 l/m 0 min 0 min 0 W/m 0,0 km/h (0 Bft) 100,00 %
23.10.2020 20:36 13,7 C 12,8 C 12,2 C 98 % 1011,1 hPa 0,0 l/m 0 min 0 min 0 W/m 0,0 km/h (0 Bft) 100,00 %
23.10.2020 20:34 13,7 C 12,8 C 12,2 C 98 % 1011,1 hPa 0,0 l/m 0 min 0 min 0 W/m 0,0 km/h (0 Bft) 97,87 %
23.10.2020 20:32 13,7 C 12,8 C 12,2 C 98 % 1011,1 hPa 0,0 l/m 0 min 0 min 0 W/m 0,0 km/h (0 Bft) 100,00 %
23.10.2020 20:30 13,7 C 12,8 C 12,2 C 98 % 1011,0 hPa 0,0 l/m 0 min 0 min 0 W/m 0,0 km/h (0 Bft) 100,00 %
23.10.2020 20:27 13,7 C 12,8 C 12,2 C 98 % 1011,1 hPa 0,0 l/m 0 min 0 min 0 W/m 0,0 km/h (0 Bft) 97,87 %
23.10.2020 20:26 13,7 C 12,8 C 12,2 C 98 % 1011,1 hPa 0,0 l/m 0 min 0 min 0 W/m 0,0 km/h (0 Bft) 100,00 %
23.10.2020 20:24 13,7 C 12,8 C 12,2 C 98 % 1011,0 hPa 0,0 l/m 0 min 0 min 0 W/m 0,0 km/h (0 Bft) 97,87 %
23.10.2020 20:22 13,7 C 12,8 C 12,2 C 98 % 1011,0 hPa 0,0 l/m 0 min 0 min 0 W/m 0,0 km/h (0 Bft) 100,00 %
23.10.2020 20:20 13,8 C 12,8 C 12,2 C 98 % 1011,0 hPa 0,0 l/m 0 min 0 min 0 W/m 0,0 km/h (0 Bft) 93,48 %
23.10.2020 20:18 13,7 C 12,8 C 12,2 C 98 % 1011,1 hPa 0,0 l/m 0 min 0 min 0 W/m 0,0 km/h (0 Bft) 93,62 %
23.10.2020 20:16 13,8 C 12,8 C 12,2 C 98 % 1011,1 hPa 0,0 l/m 0 min 0 min 0 W/m 0,0 km/h (0 Bft) 97,87 %
23.10.2020 20:14 13,7 C 12,8 C 12,2 C 97 % 1011,1 hPa 0,0 l/m 0 min 0 min 0 W/m 0,0 km/h (0 Bft) 97,87 %
23.10.2020 20:12 13,7 C 12,8 C 12,2 C 97 % 1011,1 hPa 0,0 l/m 0 min 0 min 0 W/m 0,0 km/h (0 Bft) 97,87 %
23.10.2020 20:10 13,7 C 12,8 C 12,2 C 97 % 1011,1 hPa 0,0 l/m 0 min 0 min 0 W/m 0,0 km/h (0 Bft) 97,87 %
23.10.2020 20:08 13,8 C 12,8 C 12,2 C 97 % 1011,1 hPa 0,0 l/m 0 min 0 min 0 W/m 0,0 km/h (0 Bft) 97,87 %
23.10.2020 20:06 13,8 C 12,8 C 12,2 C 97 % 1011,1 hPa 0,0 l/m 0 min 0 min 0 W/m 0,0 km/h (0 Bft) 97,92 %
23.10.2020 20:04 13,8 C 12,8 C 12,2 C 97 % 1011,1 hPa 0,0 l/m 0 min 0 min 0 W/m 0,0 km/h (0 Bft) 93,33 %
23.10.2020 20:02 13,8 C 12,8 C 12,2 C 97 % 1011,1 hPa 0,0 l/m 0 min 0 min 0 W/m 0,0 km/h (0 Bft) 93,75 %
23.10.2020 20:00 13,8 C 12,8 C 12,2 C 97 % 1011,1 hPa 0,0 l/m 0 min 0 min 0 W/m 0,0 km/h (0 Bft) 98,00 %
23.10.2020 19:58 13,8 C 12,8 C 12,2 C 97 % 1011,1 hPa 0,0 l/m 0 min 0 min 0 W/m 0,0 km/h (0 Bft) 97,83 %
23.10.2020 19:56 13,8 C 12,8 C 12,2 C 97 % 1011,1 hPa 0,0 l/m 0 min 0 min 0 W/m 0,0 km/h (0 Bft) 97,87 %
23.10.2020 19:54 13,8 C 12,8 C 12,2 C 97 % 1011,1 hPa 0,0 l/m 0 min 0 min 0 W/m 0,0 km/h (0 Bft) 97,87 %
23.10.2020 19:52 13,8 C 12,8 C 12,2 C 97 % 1011,1 hPa 0,0 l/m 0 min 0 min 0 W/m 0,0 km/h (0 Bft) 97,87 %
23.10.2020 19:50 13,8 C 12,8 C 12,2 C 97 % 1011,0 hPa 0,0 l/m 0 min 0 min 0 W/m 0,0 km/h (0 Bft) 95,74 %
23.10.2020 19:48 13,9 C 12,8 C 12,2 C 97 % 1010,9 hPa 0,0 l/m 0 min 0 min 0 W/m 0,0 km/h (0 Bft) 95,74 %
23.10.2020 19:46 13,9 C 12,8 C 12,2 C 97 % 1010,9 hPa 0,0 l/m 0 min 0 min 0 W/m 0,0 km/h (0 Bft) 95,65 %
23.10.2020 19:44 13,9 C 12,8 C 12,2 C 97 % 1010,9 hPa 0,0 l/m 0 min 0 min 0 W/m 0,0 km/h (0 Bft) 97,87 %
23.10.2020 19:42 13,9 C 12,8 C 12,2 C 97 % 1010,9 hPa 0,0 l/m 0 min 0 min 0 W/m 0,0 km/h (0 Bft) 95,74 %
23.10.2020 19:40 13,9 C 12,8 C 12,2 C 97 % 1010,8 hPa 0,0 l/m 0 min 0 min 0 W/m 0,0 km/h (0 Bft) 97,87 %
23.10.2020 19:38 13,9 C 12,8 C 12,2 C 97 % 1010,8 hPa 0,0 l/m 0 min 0 min 0 W/m 0,0 km/h (0 Bft) 97,87 %
23.10.2020 19:36 14,0 C 12,8 C 12,2 C 97 % 1010,8 hPa 0,0 l/m 0 min 0 min 0 W/m 0,0 km/h (0 Bft) 97,87 %
23.10.2020 19:34 14,0 C 12,8 C 12,2 C 97 % 1010,7 hPa 0,0 l/m 0 min 0 min 0 W/m 0,0 km/h (0 Bft) 95,65 %
23.10.2020 19:32 14,0 C 12,8 C 12,2 C 97 % 1010,7 hPa 0,0 l/m 0 min 0 min 0 W/m 0,0 km/h (0 Bft) 93,75 %
23.10.2020 19:30 14,0 C 12,8 C 12,2 C 97 % 1010,7 hPa 0,0 l/m 0 min 0 min 0 W/m 3,2 km/h (1 Bft) 97,87 %
23.10.2020 19:28 14,1 C 12,8 C 12,2 C 97 % 1010,7 hPa 0,0 l/m 0 min 0 min 0 W/m 0,0 km/h (0 Bft) 97,87 %
23.10.2020 19:26 14,1 C 12,8 C 12,2 C 97 % 1010,7 hPa 0,0 l/m 0 min 0 min 0 W/m 0,0 km/h (0 Bft) 95,74 %
23.10.2020 19:24 14,1 C 12,8 C 12,2 C 97 % 1010,7 hPa 0,0 l/m 0 min 0 min 0 W/m 0,0 km/h (0 Bft) 97,83 %
23.10.2020 19:22 14,2 C 12,8 C 12,2 C 97 % 1010,7 hPa 0,0 l/m 0 min 0 min 0 W/m 0,0 km/h (0 Bft) 96,08 %
23.10.2020 19:20 14,2 C 12,8 C 12,2 C 97 % 1010,7 hPa 0,0 l/m 0 min 0 min 0 W/m 0,0 km/h (0 Bft) 97,87 %
23.10.2020 19:18 14,2 C 12,8 C 12,2 C 97 % 1010,6 hPa 0,0 l/m 0 min 0 min 0 W/m 0,0 km/h (0 Bft) 97,87 %
23.10.2020 19:16 14,2 C 12,8 C 12,2 C 97 % 1010,6 hPa 0,0 l/m 0 min 0 min 0 W/m 0,0 km/h (0 Bft) 97,87 %
23.10.2020 19:14 14,2 C 12,8 C 12,2 C 97 % 1010,6 hPa 0,0 l/m 0 min 0 min 0 W/m 0,0 km/h (0 Bft) 97,87 %
23.10.2020 19:12 14,2 C 12,8 C 12,2 C 97 % 1010,6 hPa 0,0 l/m 0 min 0 min 0 W/m 0,0 km/h (0 Bft) 97,83 %
23.10.2020 19:10 14,2 C 12,8 C 12,2 C 97 % 1010,6 hPa 0,0 l/m 0 min 0 min 0 W/m 0,0 km/h (0 Bft) 97,87 %
23.10.2020 19:08 14,2 C 12,8 C 12,2 C 97 % 1010,6 hPa 0,0 l/m 0 min 0 min 0 W/m 0,0 km/h (0 Bft) 95,74 %
23.10.2020 19:06 14,3 C 12,8 C 12,2 C 97 % 1010,6 hPa 0,0 l/m 0 min 0 min 0 W/m 0,0 km/h (0 Bft) 97,87 %
23.10.2020 19:04 14,3 C 12,8 C 12,2 C 97 % 1010,5 hPa 0,0 l/m 0 min 0 min 0 W/m 0,0 km/h (0 Bft) 93,62 %
23.10.2020 19:02 14,4 C 12,8 C 12,2 C 97 % 1010,5 hPa 0,2 l/m 0 min 0 min 0 W/m 0,0 km/h (0 Bft) 97,83 %
23.10.2020 19:00 14,4 C 12,8 C 12,2 C 97 % 1010,5 hPa 0,0 l/m 0 min 0 min 0 W/m 0,0 km/h (0 Bft) 97,87 %
23.10.2020 18:58 14,4 C 12,8 C 12,2 C 97 % 1010,5 hPa 0,0 l/m 0 min 0 min 0 W/m 0,0 km/h (0 Bft) 93,62 %
23.10.2020 18:56 14,5 C 12,8 C 12,2 C 97 % 1010,5 hPa 0,0 l/m 0 min 0 min 0 W/m 0,0 km/h (0 Bft) 97,87 %
23.10.2020 18:54 14,5 C 12,8 C 12,2 C 97 % 1010,5 hPa 0,0 l/m 0 min 0 min 0 W/m 0,0 km/h (0 Bft) 97,87 %
23.10.2020 18:52 14,5 C 12,8 C 12,2 C 97 % 1010,6 hPa 0,0 l/m 0 min 0 min 0 W/m 0,0 km/h (0 Bft) 100,00 %
23.10.2020 18:50 14,6 C 12,8 C 12,2 C 97 % 1010,6 hPa 0,0 l/m 0 min 0 min 0 W/m 0,0 km/h (0 Bft) 97,92 %
23.10.2020 18:48 14,6 C 12,8 C 12,2 C 97 % 1010,6 hPa 0,0 l/m 0 min 0 min 0 W/m 0,0 km/h (0 Bft) 95,83 %
23.10.2020 18:46 14,6 C 12,8 C 12,2 C 97 % 1010,6 hPa 0,0 l/m 0 min 0 min 0 W/m 0,0 km/h (0 Bft) 97,87 %
23.10.2020 18:44 14,7 C 12,8 C 12,2 C 97 % 1010,5 hPa 0,0 l/m 0 min 0 min 0 W/m 0,0 km/h (0 Bft) 95,74 %
23.10.2020 18:42 14,7 C 13,3 C 12,2 C 97 % 1010,5 hPa 0,0 l/m 0 min 0 min 0 W/m 0,0 km/h (0 Bft) 100,00 %
23.10.2020 18:40 14,7 C 13,3 C 12,2 C 97 % 1010,4 hPa 0,0 l/m 0 min 0 min 0 W/m 0,0 km/h (0 Bft) 97,22 %
23.10.2020 18:38 14,8 C 13,3 C 12,2 C 97 % 1010,4 hPa 0,0 l/m 0 min 0 min 0 W/m 0,0 km/h (0 Bft) 96,67 %
23.10.2020 18:36 14,8 C 13,3 C 12,2 C 97 % 1010,4 hPa 0,0 l/m 0 min 0 min 0 W/m 0,0 km/h (0 Bft) 95,74 %
23.10.2020 18:34 14,8 C 13,3 C 12,2 C 97 % 1010,4 hPa 0,0 l/m 0 min 0 min 0 W/m 0,0 km/h (0 Bft) 97,87 %
23.10.2020 18:32 14,8 C 13,3 C 12,2 C 97 % 1010,4 hPa 0,0 l/m 0 min 0 min 0 W/m 0,0 km/h (0 Bft) 94,59 %
23.10.2020 18:30 14,8 C 13,3 C 12,8 C 97 % 1010,4 hPa 0,0 l/m 0 min 0 min 0 W/m 0,0 km/h (0 Bft) 97,83 %
23.10.2020 18:28 14,9 C 13,9 C 12,8 C 97 % 1010,5 hPa 0,0 l/m 0 min 0 min 0 W/m 0,0 km/h (0 Bft) 97,62 %
23.10.2020 18:26 14,9 C 13,9 C 12,8 C 97 % 1010,5 hPa 0,0 l/m 0 min 0 min 0 W/m 0,0 km/h (0 Bft) 97,87 %
23.10.2020 18:24 14,9 C 13,9 C 12,8 C 97 % 1010,4 hPa 0,0 l/m 0 min 0 min 0 W/m 0,0 km/h (0 Bft) 97,83 %
23.10.2020 18:22 14,9 C 13,9 C 12,8 C 97 % 1010,4 hPa 0,0 l/m 0 min 0 min 5 W/m 0,0 km/h (0 Bft) 95,74 %
23.10.2020 18:20 14,9 C 13,9 C 12,8 C 97 % 1010,4 hPa 0,0 l/m 0 min 0 min 6 W/m 6,4 km/h (2 Bft) 97,87 %
23.10.2020 18:18 14,9 C 13,9 C 12,8 C 97 % 1010,4 hPa 0,0 l/m 0 min 0 min 8 W/m 0,0 km/h (0 Bft) 97,87 %
23.10.2020 18:16 15,0 C 13,9 C 12,8 C 97 % 1010,3 hPa 0,0 l/m 0 min 0 min 10 W/m 0,0 km/h (0 Bft) 97,87 %
23.10.2020 18:14 15,0 C 13,9 C 12,8 C 97 % 1010,4 hPa 0,0 l/m 0 min 0 min 11 W/m 0,0 km/h (0 Bft) 97,87 %
23.10.2020 18:12 15,0 C 13,9 C 12,8 C 97 % 1010,3 hPa 0,0 l/m 0 min 0 min 12 W/m 0,0 km/h (0 Bft) 97,87 %
23.10.2020 18:10 15,0 C 13,3 C 12,8 C 97 % 1010,4 hPa 0,0 l/m 0 min 0 min 13 W/m 0,0 km/h (0 Bft) 97,92 %
23.10.2020 18:08 15,0 C 13,3 C 12,8 C 97 % 1010,4 hPa 0,0 l/m 0 min 0 min 17 W/m 0,0 km/h (0 Bft) 96,84 %
23.10.2020 18:04 15,1 C 13,9 C 12,8 C 97 % 1010,4 hPa 0,0 l/m 0 min 0 min 15 W/m 0,0 km/h (0 Bft) 97,87 %
23.10.2020 18:02 15,2 C 13,9 C 12,8 C 97 % 1010,3 hPa 0,0 l/m 0 min 0 min 13 W/m 0,0 km/h (0 Bft) 97,73 %
23.10.2020 18:00 15,2 C 13,9 C 12,8 C 98 % 1010,2 hPa 0,0 l/m 0 min 0 min 12 W/m 0,0 km/h (0 Bft) 97,83 %
23.10.2020 17:58 15,3 C 13,9 C 12,8 C 97 % 1010,2 hPa 0,0 l/m 0 min 0 min 13 W/m 0,0 km/h (0 Bft) 97,87 %
23.10.2020 17:56 15,3 C 13,9 C 12,8 C 98 % 1010,2 hPa 0,0 l/m 0 min 0 min 14 W/m 0,0 km/h (0 Bft) 97,87 %
23.10.2020 17:54 15,3 C 13,9 C 12,8 C 98 % 1010,3 hPa 0,0 l/m 0 min 0 min 14 W/m 0,0 km/h (0 Bft) 97,87 %
23.10.2020 17:52 15,4 C 13,9 C 13,4 C 98 % 1010,2 hPa 0,0 l/m 0 min 0 min 16 W/m 0,0 km/h (0 Bft) 95,74 %
23.10.2020 17:50 15,4 C 13,9 C 13,4 C 98 % 1010,2 hPa 0,0 l/m 0 min 0 min 18 W/m 0,0 km/h (0 Bft) 97,92 %
23.10.2020 17:48 15,4 C 13,9 C 13,4 C 98 % 1010,2 hPa 0,0 l/m 0 min 0 min 19 W/m 0,0 km/h (0 Bft) 97,92 %
23.10.2020 17:46 15,4 C 13,9 C 13,4 C 98 % 1010,2 hPa 0,0 l/m 0 min 0 min 19 W/m 0,0 km/h (0 Bft) 97,87 %
23.10.2020 17:44 15,5 C 14,4 C 13,4 C 98 % 1010,2 hPa 0,0 l/m 0 min 0 min 18 W/m 0,0 km/h (0 Bft) 93,62 %
23.10.2020 17:42 15,4 C 14,4 C 13,4 C 98 % 1010,1 hPa 0,0 l/m 0 min 0 min 19 W/m 0,0 km/h (0 Bft) 97,87 %
23.10.2020 17:40 15,5 C 14,4 C 13,4 C 98 % 1010,2 hPa 0,0 l/m 0 min 0 min 20 W/m 0,0 km/h (0 Bft) 97,92 %
23.10.2020 17:38 15,5 C 14,4 C 13,4 C 98 % 1010,2 hPa 0,0 l/m 0 min 0 min 23 W/m 0,0 km/h (0 Bft) 97,87 %
23.10.2020 17:36 15,5 C 14,4 C 13,4 C 98 % 1010,1 hPa 0,0 l/m 0 min 0 min 25 W/m 0,0 km/h (0 Bft) 97,92 %
23.10.2020 17:34 15,5 C 15,0 C 13,9 C 98 % 1010,1 hPa 0,0 l/m 0 min 0 min 26 W/m 0,0 km/h (0 Bft) 95,12 %
23.10.2020 17:32 15,5 C 15,0 C 13,9 C 98 % 1010,1 hPa 0,0 l/m 0 min 0 min 29 W/m 0,0 km/h (0 Bft) 97,87 %
23.10.2020 17:30 15,5 C 15,0 C 13,9 C 99 % 1010,0 hPa 0,0 l/m 0 min 0 min 31 W/m 0,0 km/h (0 Bft) 95,74 %
23.10.2020 17:28 15,5 C 15,0 C 13,9 C 99 % 1010,0 hPa 0,0 l/m 0 min 0 min 38 W/m 0,0 km/h (0 Bft) 95,74 %
23.10.2020 17:26 15,5 C 15,6 C 13,9 C 99 % 1010,0 hPa 0,0 l/m 0 min 0 min 48 W/m 0,0 km/h (0 Bft) 93,48 %
23.10.2020 17:24 15,5 C 15,6 C 13,9 C 98 % 1010,0 hPa 0,0 l/m 0 min 0 min 58 W/m 0,0 km/h (0 Bft) 97,87 %
23.10.2020 17:22 15,5 C 15,6 C 13,9 C 99 % 1010,0 hPa 0,0 l/m 0 min 0 min 61 W/m 0,0 km/h (0 Bft) 95,74 %
23.10.2020 17:20 15,5 C 15,6 C 13,9 C 99 % 1010,0 hPa 0,0 l/m 0 min 0 min 64 W/m 0,0 km/h (0 Bft) 95,74 %
23.10.2020 17:18 15,5 C 15,6 C 13,9 C 99 % 1010,0 hPa 0,0 l/m 0 min 0 min 58 W/m 0,0 km/h (0 Bft) 95,83 %
23.10.2020 17:16 15,5 C 15,6 C 13,9 C 99 % 1010,0 hPa 0,0 l/m 0 min 0 min 52 W/m 0,0 km/h (0 Bft) 97,87 %
23.10.2020 17:14 15,5 C 15,6 C 13,9 C 99 % 1010,0 hPa 0,0 l/m 0 min 0 min 52 W/m 0,0 km/h (0 Bft) 97,92 %
23.10.2020 17:12 15,5 C 15,6 C 13,9 C 99 % 1010,0 hPa 0,0 l/m 0 min 0 min 52 W/m 0,0 km/h (0 Bft) 97,87 %
23.10.2020 17:10 15,5 C 15,0 C 13,9 C 99 % 1010,0 hPa 0,0 l/m 0 min 0 min 52 W/m 0,0 km/h (0 Bft) 95,83 %
23.10.2020 17:08 15,5 C 15,0 C 13,9 C 99 % 1010,0 hPa 0,0 l/m 0 min 0 min 62 W/m 0,0 km/h (0 Bft) 95,74 %
23.10.2020 17:06 15,5 C 15,0 C 13,9 C 99 % 1010,0 hPa 0,0 l/m 0 min 0 min 65 W/m 12,9 km/h (3 Bft) 95,83 %
23.10.2020 17:04 15,5 C 15,0 C 13,9 C 99 % 1010,0 hPa 0,0 l/m 0 min 0 min 58 W/m 19,3 km/h (3 Bft) 97,87 %
23.10.2020 17:02 15,6 C 15,0 C 13,9 C 99 % 1010,1 hPa 0,0 l/m 0 min 0 min 53 W/m 0,0 km/h (0 Bft) 95,74 %
23.10.2020 17:00 15,6 C 15,0 C 13,9 C 99 % 1010,1 hPa 0,0 l/m 0 min 0 min 49 W/m 12,9 km/h (3 Bft) 95,12 %
_ Min-Zeit 05:04 03:00 03:00 14:40 17:04 - - - - 17:02 13:16
Minimum _ 11,0 C 10,0 C 10,0 C 82 % 1010,0 hPa - - - - 0,0 km/h (0 Bft) 72,34 %
_ Max-Zeit 15:26 13:32 13:32 06:34 11:52 19:02 10:22 00:08 13:34 14:04 18:42
Maximum _ 16,0 C 17,8 C 15,6 C 100 % 1013,3 hPa 0,2 l/m 2 min 4 min 585 W/m 51,5 km/h
S (7 Bft)
100,00 %
Durchschnitt _ 13,3 C 12,7 C 12,2 C 96 % 1012,0 hPa #0,8 l/m #1:10 h #24 min. 110 W/m 8,6 km/h (2 Bft) 97,29 %
© 2020 W. Hausmann